Wetterdaten: Montag, 30.12.2019
Datum Zeit Temp. Aussen Temp. o. S. Temp +5cm Feuchte Auss Luftdruck Regen Sonnenschein Regendauer Solar Windben Empfang
30.12.2019 00:00 1,6 C 1,1 C 0,6 C 82 % 1035,3 hPa 0,0 l/m 0 min 0 min 0 W/m 16,1 km/h (3 Bft) 100,00 %
30.12.2019 00:02 1,6 C 1,1 C 0,6 C 82 % 1035,3 hPa 0,0 l/m 0 min 0 min 0 W/m 0,0 km/h (0 Bft) 12,50 %
30.12.2019 00:04 1,6 C 1,1 C 0,6 C 82 % 1035,3 hPa 0,0 l/m 0 min 0 min 0 W/m 12,9 km/h (3 Bft) 86,36 %
30.12.2019 00:08 1,6 C 1,1 C 0,6 C 82 % 1035,3 hPa 0,0 l/m 0 min 0 min 0 W/m 16,1 km/h (3 Bft) 100,00 %
30.12.2019 00:10 1,6 C 1,1 C 0,6 C 82 % 1035,3 hPa 0,0 l/m 0 min 0 min 0 W/m 19,3 km/h (3 Bft) 100,00 %
30.12.2019 00:12 1,6 C 1,1 C 0,6 C 82 % 1035,2 hPa 0,0 l/m 0 min 0 min 0 W/m 19,3 km/h (3 Bft) 100,00 %
30.12.2019 00:14 1,6 C 1,1 C 0,6 C 82 % 1035,2 hPa 0,0 l/m 0 min 0 min 0 W/m 16,1 km/h (3 Bft) 97,87 %
30.12.2019 00:16 1,6 C 1,1 C 0,6 C 82 % 1035,2 hPa 0,0 l/m 0 min 0 min 0 W/m 12,9 km/h (3 Bft) 100,00 %
30.12.2019 00:18 1,6 C 1,1 C 0,6 C 82 % 1035,2 hPa 0,0 l/m 0 min 0 min 0 W/m 22,5 km/h (4 Bft) 100,00 %
30.12.2019 00:20 1,6 C 1,1 C 0,6 C 82 % 1035,2 hPa 0,0 l/m 0 min 0 min 0 W/m 19,3 km/h (3 Bft) 100,00 %
30.12.2019 00:22 1,6 C 1,1 C 0,6 C 82 % 1035,2 hPa 0,0 l/m 0 min 0 min 0 W/m 16,1 km/h (3 Bft) 100,00 %
30.12.2019 00:24 1,6 C 1,1 C 0,6 C 82 % 1035,2 hPa 0,0 l/m 0 min 0 min 0 W/m 19,3 km/h (3 Bft) 100,00 %
30.12.2019 00:26 1,6 C 1,1 C 0,6 C 82 % 1035,2 hPa 0,0 l/m 0 min 0 min 0 W/m 16,1 km/h (3 Bft) 100,00 %
30.12.2019 00:28 1,6 C 1,1 C 0,0 C 82 % 1035,1 hPa 0,0 l/m 0 min 0 min 0 W/m 3,2 km/h (1 Bft) 100,00 %
30.12.2019 00:30 1,6 C 1,1 C 0,6 C 82 % 1035,0 hPa 0,0 l/m 0 min 0 min 0 W/m 16,1 km/h (3 Bft) 100,00 %
30.12.2019 00:32 1,6 C 1,1 C 0,0 C 82 % 1035,0 hPa 0,0 l/m 0 min 0 min 0 W/m 12,9 km/h (3 Bft) 97,83 %
30.12.2019 00:34 1,6 C 1,1 C 0,6 C 82 % 1034,9 hPa 0,0 l/m 0 min 0 min 0 W/m 16,1 km/h (3 Bft) 100,00 %
30.12.2019 00:36 1,6 C 1,1 C 0,0 C 82 % 1034,9 hPa 0,0 l/m 0 min 0 min 0 W/m 19,3 km/h (3 Bft) 100,00 %
30.12.2019 00:38 1,6 C 1,1 C 0,0 C 82 % 1034,8 hPa 0,0 l/m 0 min 0 min 0 W/m 19,3 km/h (3 Bft) 100,00 %
30.12.2019 00:40 1,6 C 1,1 C 0,0 C 82 % 1034,9 hPa 0,0 l/m 0 min 0 min 0 W/m 16,1 km/h (3 Bft) 97,87 %
30.12.2019 00:42 1,6 C 1,1 C 0,0 C 82 % 1034,8 hPa 0,0 l/m 0 min 0 min 0 W/m 16,1 km/h (3 Bft) 97,83 %
30.12.2019 00:44 1,6 C 1,1 C 0,0 C 82 % 1034,7 hPa 0,0 l/m 0 min 0 min 0 W/m 19,3 km/h (3 Bft) 100,00 %
30.12.2019 00:46 1,6 C 1,1 C 0,6 C 82 % 1034,8 hPa 0,0 l/m 0 min 0 min 0 W/m 25,7 km/h (4 Bft) 100,00 %
30.12.2019 00:48 1,6 C 1,1 C 0,6 C 82 % 1034,7 hPa 0,0 l/m 0 min 0 min 0 W/m 19,3 km/h (3 Bft) 100,00 %
30.12.2019 00:50 1,6 C 0,6 C 0,0 C 82 % 1034,7 hPa 0,0 l/m 0 min 0 min 0 W/m 12,9 km/h (3 Bft) 100,00 %
30.12.2019 00:52 1,6 C 0,6 C 0,0 C 82 % 1034,7 hPa 0,0 l/m 0 min 0 min 0 W/m 16,1 km/h (3 Bft) 100,00 %
30.12.2019 00:54 1,6 C 1,1 C 0,0 C 82 % 1034,7 hPa 0,0 l/m 0 min 0 min 0 W/m 19,3 km/h (3 Bft) 100,00 %
30.12.2019 00:56 1,5 C 0,6 C 0,0 C 82 % 1034,7 hPa 0,0 l/m 0 min 0 min 0 W/m 12,9 km/h (3 Bft) 100,00 %
30.12.2019 00:58 1,5 C 0,6 C 0,0 C 82 % 1034,6 hPa 0,0 l/m 0 min 0 min 0 W/m 12,9 km/h (3 Bft) 100,00 %
30.12.2019 01:00 1,5 C 0,6 C 0,0 C 82 % 1034,7 hPa 0,0 l/m 0 min 0 min 0 W/m 19,3 km/h (3 Bft) 97,87 %
30.12.2019 01:02 1,5 C 0,6 C 0,0 C 82 % 1034,7 hPa 0,0 l/m 0 min 0 min 0 W/m 16,1 km/h (3 Bft) 97,87 %
30.12.2019 01:04 1,5 C 0,6 C 0,0 C 82 % 1034,7 hPa 0,0 l/m 0 min 0 min 0 W/m 3,2 km/h (1 Bft) 93,62 %
30.12.2019 01:06 1,5 C 0,6 C 0,0 C 82 % 1034,7 hPa 0,0 l/m 0 min 0 min 0 W/m 6,4 km/h (2 Bft) 97,83 %
30.12.2019 01:08 1,5 C 0,6 C 0,0 C 82 % 1034,7 hPa 0,0 l/m 0 min 0 min 0 W/m 3,2 km/h (1 Bft) 97,87 %
30.12.2019 01:10 1,4 C 0,6 C 0,0 C 82 % 1034,7 hPa 0,0 l/m 0 min 0 min 0 W/m 3,2 km/h (1 Bft) 95,74 %
30.12.2019 01:12 1,4 C 0,6 C 0,0 C 82 % 1034,7 hPa 0,0 l/m 0 min 0 min 0 W/m 3,2 km/h (1 Bft) 97,87 %
30.12.2019 01:14 1,4 C 0,6 C 0,0 C 82 % 1034,7 hPa 0,0 l/m 0 min 0 min 0 W/m 12,9 km/h (3 Bft) 97,87 %
30.12.2019 01:16 1,4 C 0,6 C 0,0 C 82 % 1034,6 hPa 0,0 l/m 0 min 0 min 0 W/m 6,4 km/h (2 Bft) 97,87 %
30.12.2019 01:18 1,4 C 0,6 C 0,0 C 82 % 1034,7 hPa 0,0 l/m 0 min 0 min 0 W/m 6,4 km/h (2 Bft) 93,48 %
30.12.2019 01:20 1,4 C 0,6 C 0,0 C 82 % 1034,6 hPa 0,0 l/m 0 min 0 min 0 W/m 6,4 km/h (2 Bft) 97,87 %
30.12.2019 01:22 1,4 C 0,6 C 0,0 C 82 % 1034,6 hPa 0,0 l/m 0 min 0 min 0 W/m 3,2 km/h (1 Bft) 95,74 %
30.12.2019 01:24 1,4 C 0,6 C 0,0 C 82 % 1034,5 hPa 0,0 l/m 0 min 0 min 0 W/m 3,2 km/h (1 Bft) 97,87 %
30.12.2019 01:26 1,4 C 0,6 C 0,0 C 82 % 1034,5 hPa 0,0 l/m 0 min 0 min 0 W/m 3,2 km/h (1 Bft) 95,74 %
30.12.2019 01:28 1,4 C 0,6 C 0,0 C 82 % 1034,5 hPa 0,0 l/m 0 min 0 min 0 W/m 3,2 km/h (1 Bft) 93,48 %
30.12.2019 01:30 1,4 C 0,6 C 0,0 C 82 % 1034,5 hPa 0,0 l/m 0 min 0 min 0 W/m 3,2 km/h (1 Bft) 93,62 %
30.12.2019 01:32 1,4 C 0,6 C 0,0 C 82 % 1034,4 hPa 0,0 l/m 0 min 0 min 0 W/m 3,2 km/h (1 Bft) 95,74 %
30.12.2019 01:34 1,4 C 1,1 C 0,0 C 82 % 1034,3 hPa 0,0 l/m 0 min 0 min 0 W/m 16,1 km/h (3 Bft) 91,49 %
30.12.2019 01:36 1,4 C 1,1 C 0,0 C 82 % 1034,3 hPa 0,0 l/m 0 min 0 min 0 W/m 19,3 km/h (3 Bft) 95,74 %
30.12.2019 01:38 1,4 C 1,1 C 0,6 C 82 % 1034,2 hPa 0,0 l/m 0 min 0 min 0 W/m 19,3 km/h (3 Bft) 95,74 %
30.12.2019 01:40 1,4 C 1,1 C 0,0 C 82 % 1034,2 hPa 0,0 l/m 0 min 0 min 0 W/m 19,3 km/h (3 Bft) 97,83 %
30.12.2019 01:42 1,4 C 1,1 C 0,6 C 82 % 1034,2 hPa 0,0 l/m 0 min 0 min 0 W/m 16,1 km/h (3 Bft) 95,74 %
30.12.2019 01:44 1,4 C 1,1 C 0,6 C 82 % 1034,3 hPa 0,0 l/m 0 min 0 min 0 W/m 6,4 km/h (2 Bft) 95,74 %
30.12.2019 01:46 1,4 C 1,1 C 0,6 C 82 % 1034,3 hPa 0,0 l/m 0 min 0 min 0 W/m 0,0 km/h (0 Bft) 95,74 %
30.12.2019 01:48 1,4 C 1,1 C 0,6 C 82 % 1034,3 hPa 0,0 l/m 0 min 0 min 0 W/m 0,0 km/h (0 Bft) 93,62 %
30.12.2019 01:50 1,4 C 1,1 C 0,6 C 82 % 1034,3 hPa 0,0 l/m 0 min 0 min 0 W/m 3,2 km/h (1 Bft) 93,62 %
30.12.2019 01:52 1,4 C 1,1 C 0,6 C 82 % 1034,2 hPa 0,0 l/m 0 min 0 min 0 W/m 12,9 km/h (3 Bft) 91,30 %
30.12.2019 01:54 1,5 C 1,1 C 0,6 C 82 % 1034,2 hPa 0,0 l/m 0 min 0 min 0 W/m 12,9 km/h (3 Bft) 91,49 %
30.12.2019 01:56 1,5 C 1,1 C 0,6 C 82 % 1034,2 hPa 0,0 l/m 0 min 0 min 0 W/m 16,1 km/h (3 Bft) 93,62 %
30.12.2019 01:58 1,5 C 1,1 C 0,6 C 82 % 1034,2 hPa 0,0 l/m 0 min 0 min 0 W/m 12,9 km/h (3 Bft) 93,62 %
30.12.2019 02:00 1,6 C 1,1 C 0,6 C 81 % 1034,2 hPa 0,0 l/m 0 min 0 min 0 W/m 12,9 km/h (3 Bft) 95,74 %
30.12.2019 02:02 1,6 C 1,1 C 0,6 C 81 % 1034,3 hPa 0,0 l/m 0 min 0 min 0 W/m 12,9 km/h (3 Bft) 93,62 %
30.12.2019 02:04 1,6 C 1,1 C 0,6 C 81 % 1034,3 hPa 0,0 l/m 0 min 0 min 0 W/m 0,0 km/h (0 Bft) 95,65 %
30.12.2019 02:06 1,6 C 1,1 C 0,6 C 81 % 1034,3 hPa 0,0 l/m 0 min 0 min 0 W/m 0,0 km/h (0 Bft) 91,49 %
30.12.2019 02:08 1,6 C 1,1 C 0,6 C 81 % 1034,4 hPa 0,0 l/m 0 min 0 min 0 W/m 12,9 km/h (3 Bft) 95,74 %
30.12.2019 02:10 1,6 C 1,1 C 0,6 C 81 % 1034,4 hPa 0,0 l/m 0 min 0 min 0 W/m 12,9 km/h (3 Bft) 95,74 %
30.12.2019 02:12 1,6 C 1,1 C 0,6 C 81 % 1034,5 hPa 0,0 l/m 0 min 0 min 0 W/m 0,0 km/h (0 Bft) 95,74 %
30.12.2019 02:14 1,6 C 1,1 C 0,6 C 81 % 1034,5 hPa 0,0 l/m 0 min 0 min 0 W/m 3,2 km/h (1 Bft) 97,87 %
30.12.2019 02:16 1,6 C 1,1 C 0,6 C 81 % 1034,5 hPa 0,0 l/m 0 min 0 min 0 W/m 3,2 km/h (1 Bft) 95,65 %
30.12.2019 02:18 1,7 C 1,1 C 0,6 C 81 % 1034,4 hPa 0,0 l/m 0 min 0 min 0 W/m 12,9 km/h (3 Bft) 95,74 %
30.12.2019 02:20 1,7 C 1,1 C 0,6 C 81 % 1034,4 hPa 0,0 l/m 0 min 0 min 0 W/m 3,2 km/h (1 Bft) 95,74 %
30.12.2019 02:22 1,7 C 1,1 C 0,6 C 81 % 1034,4 hPa 0,0 l/m 0 min 0 min 0 W/m 6,4 km/h (2 Bft) 97,87 %
30.12.2019 02:24 1,7 C 1,1 C 0,6 C 81 % 1034,4 hPa 0,0 l/m 0 min 0 min 0 W/m 6,4 km/h (2 Bft) 97,87 %
30.12.2019 02:26 1,7 C 1,1 C 0,6 C 81 % 1034,4 hPa 0,0 l/m 0 min 0 min 0 W/m 3,2 km/h (1 Bft) 97,83 %
30.12.2019 02:28 1,7 C 1,1 C 0,6 C 81 % 1034,4 hPa 0,0 l/m 0 min 0 min 0 W/m 6,4 km/h (2 Bft) 95,74 %
30.12.2019 02:30 1,7 C 1,1 C 0,6 C 81 % 1034,4 hPa 0,0 l/m 0 min 0 min 0 W/m 6,4 km/h (2 Bft) 97,87 %
30.12.2019 02:32 1,7 C 1,1 C 0,6 C 81 % 1034,5 hPa 0,0 l/m 0 min 0 min 0 W/m 12,9 km/h (3 Bft) 97,87 %
30.12.2019 02:34 1,7 C 1,1 C 0,6 C 81 % 1034,4 hPa 0,0 l/m 0 min 0 min 0 W/m 0,0 km/h (0 Bft) 97,87 %
30.12.2019 02:36 1,7 C 1,1 C 0,0 C 81 % 1034,5 hPa 0,0 l/m 0 min 0 min 0 W/m 12,9 km/h (3 Bft) 97,87 %
30.12.2019 02:38 1,7 C 0,6 C 0,0 C 81 % 1034,4 hPa 0,0 l/m 0 min 0 min 0 W/m 6,4 km/h (2 Bft) 100,00 %
30.12.2019 02:40 1,7 C 0,6 C 0,0 C 81 % 1034,4 hPa 0,0 l/m 0 min 0 min 0 W/m 12,9 km/h (3 Bft) 100,00 %
30.12.2019 02:42 1,6 C 0,6 C 0,0 C 81 % 1034,3 hPa 0,0 l/m 0 min 0 min 0 W/m 12,9 km/h (3 Bft) 100,00 %
30.12.2019 02:44 1,6 C 0,6 C 0,0 C 81 % 1034,3 hPa 0,0 l/m 0 min 0 min 0 W/m 16,1 km/h (3 Bft) 97,87 %
30.12.2019 02:46 1,6 C 0,6 C 0,0 C 81 % 1034,4 hPa 0,0 l/m 0 min 0 min 0 W/m 19,3 km/h (3 Bft) 100,00 %
30.12.2019 02:48 1,6 C 0,6 C 0,0 C 81 % 1034,4 hPa 0,0 l/m 0 min 0 min 0 W/m 6,4 km/h (2 Bft) 100,00 %
30.12.2019 02:50 1,6 C 0,6 C 0,0 C 81 % 1034,3 hPa 0,0 l/m 0 min 0 min 0 W/m 6,4 km/h (2 Bft) 100,00 %
30.12.2019 02:52 1,6 C 0,6 C 0,0 C 81 % 1034,3 hPa 0,0 l/m 0 min 0 min 0 W/m 12,9 km/h (3 Bft) 100,00 %
30.12.2019 02:54 1,5 C 0,6 C 0,0 C 81 % 1034,3 hPa 0,0 l/m 0 min 0 min 0 W/m 12,9 km/h (3 Bft) 100,00 %
30.12.2019 02:56 1,5 C 0,6 C 0,0 C 81 % 1034,3 hPa 0,0 l/m 0 min 0 min 0 W/m 16,1 km/h (3 Bft) 100,00 %
30.12.2019 02:58 1,5 C 0,6 C 0,0 C 81 % 1034,3 hPa 0,0 l/m 0 min 0 min 0 W/m 16,1 km/h (3 Bft) 100,00 %
30.12.2019 03:00 1,4 C 0,6 C 0,0 C 80 % 1034,2 hPa 0,0 l/m 0 min 0 min 0 W/m 19,3 km/h (3 Bft) 100,00 %
30.12.2019 03:02 1,4 C 0,6 C 0,0 C 80 % 1034,1 hPa 0,0 l/m 0 min 0 min 0 W/m 12,9 km/h (3 Bft) 97,83 %
30.12.2019 03:04 1,4 C 1,1 C 0,0 C 80 % 1034,1 hPa 0,0 l/m 0 min 0 min 0 W/m 16,1 km/h (3 Bft) 97,87 %
30.12.2019 03:06 1,4 C 1,1 C 0,0 C 80 % 1034,1 hPa 0,0 l/m 0 min 0 min 0 W/m 22,5 km/h (4 Bft) 100,00 %
30.12.2019 03:08 1,4 C 1,1 C 0,0 C 80 % 1034,1 hPa 0,0 l/m 0 min 0 min 0 W/m 12,9 km/h (3 Bft) 100,00 %
30.12.2019 03:10 1,4 C 1,1 C 0,0 C 80 % 1034,1 hPa 0,0 l/m 0 min 0 min 0 W/m 16,1 km/h (3 Bft) 100,00 %
30.12.2019 03:12 1,4 C 1,1 C 0,6 C 80 % 1034,2 hPa 0,0 l/m 0 min 0 min 0 W/m 22,5 km/h (4 Bft) 100,00 %
30.12.2019 03:14 1,5 C 1,1 C 0,6 C 80 % 1034,2 hPa 0,0 l/m 0 min 0 min 0 W/m 22,5 km/h (4 Bft) 100,00 %
30.12.2019 03:16 1,5 C 1,1 C 0,6 C 80 % 1034,2 hPa 0,0 l/m 0 min 0 min 0 W/m 12,9 km/h (3 Bft) 100,00 %
30.12.2019 03:18 1,5 C 1,1 C 0,0 C 80 % 1034,1 hPa 0,0 l/m 0 min 0 min 0 W/m 16,1 km/h (3 Bft) 100,00 %
30.12.2019 03:20 1,5 C 1,1 C 0,0 C 79 % 1034,1 hPa 0,0 l/m 0 min 0 min 0 W/m 12,9 km/h (3 Bft) 100,00 %
30.12.2019 03:22 1,5 C 1,1 C 0,0 C 79 % 1034,1 hPa 0,0 l/m 0 min 0 min 0 W/m 12,9 km/h (3 Bft) 100,00 %
30.12.2019 03:24 1,5 C 1,1 C 0,0 C 79 % 1034,0 hPa 0,0 l/m 0 min 0 min 0 W/m 12,9 km/h (3 Bft) 100,00 %
30.12.2019 03:26 1,5 C 1,1 C 0,0 C 79 % 1034,0 hPa 0,0 l/m 0 min 0 min 0 W/m 12,9 km/h (3 Bft) 100,00 %
30.12.2019 03:28 1,5 C 1,1 C 0,0 C 79 % 1034,0 hPa 0,0 l/m 0 min 0 min 0 W/m 16,1 km/h (3 Bft) 100,00 %
30.12.2019 03:30 1,5 C 1,1 C 0,0 C 79 % 1034,0 hPa 0,0 l/m 0 min 0 min 0 W/m 16,1 km/h (3 Bft) 100,00 %
30.12.2019 03:32 1,5 C 1,1 C 0,0 C 79 % 1034,0 hPa 0,0 l/m 0 min 0 min 0 W/m 12,9 km/h (3 Bft) 97,87 %
30.12.2019 03:34 1,5 C 1,1 C 0,0 C 79 % 1033,9 hPa 0,0 l/m 0 min 0 min 0 W/m 12,9 km/h (3 Bft) 97,87 %
30.12.2019 03:36 1,5 C 1,1 C 0,0 C 79 % 1033,9 hPa 0,0 l/m 0 min 0 min 0 W/m 16,1 km/h (3 Bft) 100,00 %
30.12.2019 03:38 1,5 C 1,1 C 0,0 C 79 % 1033,9 hPa 0,0 l/m 0 min 0 min 0 W/m 12,9 km/h (3 Bft) 100,00 %
30.12.2019 03:40 1,5 C 1,1 C 0,0 C 79 % 1033,9 hPa 0,0 l/m 0 min 0 min 0 W/m 12,9 km/h (3 Bft) 100,00 %
30.12.2019 03:42 1,5 C 1,1 C 0,0 C 79 % 1033,8 hPa 0,0 l/m 0 min 0 min 0 W/m 16,1 km/h (3 Bft) 100,00 %
30.12.2019 03:44 1,5 C 1,1 C 0,0 C 79 % 1033,8 hPa 0,0 l/m 0 min 0 min 0 W/m 16,1 km/h (3 Bft) 100,00 %
30.12.2019 03:46 1,5 C 0,6 C 0,0 C 79 % 1033,8 hPa 0,0 l/m 0 min 0 min 0 W/m 6,4 km/h (2 Bft) 97,87 %
30.12.2019 03:48 1,5 C 0,6 C 0,0 C 79 % 1033,8 hPa 0,0 l/m 0 min 0 min 0 W/m 6,4 km/h (2 Bft) 100,00 %
30.12.2019 03:50 1,5 C 0,6 C 0,0 C 79 % 1033,8 hPa 0,0 l/m 0 min 0 min 0 W/m 12,9 km/h (3 Bft) 95,74 %
30.12.2019 03:52 1,5 C 0,6 C 0,0 C 79 % 1033,8 hPa 0,0 l/m 0 min 0 min 0 W/m 12,9 km/h (3 Bft) 100,00 %
30.12.2019 03:54 1,5 C 1,1 C 0,0 C 79 % 1033,8 hPa 0,0 l/m 0 min 0 min 0 W/m 16,1 km/h (3 Bft) 100,00 %
30.12.2019 03:56 1,5 C 1,1 C 0,0 C 79 % 1033,7 hPa 0,0 l/m 0 min 0 min 0 W/m 12,9 km/h (3 Bft) 97,87 %
30.12.2019 03:58 1,4 C 0,6 C 0,0 C 79 % 1033,7 hPa 0,0 l/m 0 min 0 min 0 W/m 3,2 km/h (1 Bft) 95,74 %
30.12.2019 04:00 1,5 C 0,6 C 0,0 C 79 % 1033,7 hPa 0,0 l/m 0 min 0 min 0 W/m 3,2 km/h (1 Bft) 97,83 %
30.12.2019 04:02 1,5 C 0,6 C 0,0 C 80 % 1033,7 hPa 0,0 l/m 0 min 0 min 0 W/m 3,2 km/h (1 Bft) 100,00 %
30.12.2019 04:04 1,4 C 0,6 C 0,0 C 80 % 1033,8 hPa 0,0 l/m 0 min 0 min 0 W/m 6,4 km/h (2 Bft) 93,62 %
30.12.2019 04:06 1,4 C 0,6 C 0,0 C 80 % 1033,7 hPa 0,0 l/m 0 min 0 min 0 W/m 3,2 km/h (1 Bft) 97,87 %
30.12.2019 04:08 1,4 C 0,6 C 0,0 C 80 % 1033,7 hPa 0,0 l/m 0 min 0 min 0 W/m 12,9 km/h (3 Bft) 95,74 %
30.12.2019 04:10 1,4 C 0,6 C 0,0 C 80 % 1033,7 hPa 0,0 l/m 0 min 0 min 0 W/m 6,4 km/h (2 Bft) 97,83 %
30.12.2019 04:12 1,4 C 0,6 C 0,0 C 80 % 1033,7 hPa 0,0 l/m 0 min 0 min 0 W/m 6,4 km/h (2 Bft) 54,35 %
30.12.2019 04:14 1,4 C 0,6 C 0,0 C 80 % 1033,7 hPa 0,0 l/m 0 min 0 min 0 W/m 6,4 km/h (2 Bft) 97,87 %
30.12.2019 04:16 1,4 C 0,6 C 0,0 C 80 % 1033,7 hPa 0,0 l/m 0 min 0 min 0 W/m 12,9 km/h (3 Bft) 97,87 %
30.12.2019 04:18 1,4 C 0,6 C 0,0 C 80 % 1033,7 hPa 0,0 l/m 0 min 0 min 0 W/m 12,9 km/h (3 Bft) 97,87 %
30.12.2019 04:20 1,4 C 0,6 C 0,0 C 80 % 1033,7 hPa 0,0 l/m 0 min 0 min 0 W/m 6,4 km/h (2 Bft) 91,49 %
30.12.2019 04:22 1,4 C 0,6 C 0,0 C 80 % 1033,7 hPa 0,0 l/m 0 min 0 min 0 W/m 12,9 km/h (3 Bft) 97,83 %
30.12.2019 04:24 1,3 C 0,6 C 0,0 C 80 % 1033,7 hPa 0,0 l/m 0 min 0 min 0 W/m 22,5 km/h (4 Bft) 97,87 %
30.12.2019 04:26 1,3 C 0,6 C 0,0 C 80 % 1033,7 hPa 0,0 l/m 0 min 0 min 0 W/m 6,4 km/h (2 Bft) 97,87 %
30.12.2019 04:28 1,3 C 0,6 C 0,0 C 80 % 1033,7 hPa 0,0 l/m 0 min 0 min 0 W/m 6,4 km/h (2 Bft) 97,87 %
30.12.2019 04:30 1,3 C 0,6 C 0,0 C 80 % 1033,6 hPa 0,0 l/m 0 min 0 min 0 W/m 6,4 km/h (2 Bft) 97,87 %
30.12.2019 04:32 1,3 C 0,6 C 0,0 C 80 % 1033,6 hPa 0,0 l/m 0 min 0 min 0 W/m 6,4 km/h (2 Bft) 95,74 %
30.12.2019 04:34 1,3 C 0,6 C 0,0 C 80 % 1033,6 hPa 0,0 l/m 0 min 0 min 0 W/m 16,1 km/h (3 Bft) 97,83 %
30.12.2019 04:36 1,3 C 0,6 C 0,0 C 80 % 1033,5 hPa 0,0 l/m 0 min 0 min 0 W/m 6,4 km/h (2 Bft) 95,74 %
30.12.2019 04:38 1,3 C 0,6 C 0,0 C 80 % 1033,5 hPa 0,0 l/m 0 min 0 min 0 W/m 12,9 km/h (3 Bft) 93,62 %
30.12.2019 04:40 1,2 C 0,6 C 0,0 C 80 % 1033,5 hPa 0,0 l/m 0 min 0 min 0 W/m 6,4 km/h (2 Bft) 95,74 %
30.12.2019 04:42 1,2 C 0,6 C 0,0 C 80 % 1033,5 hPa 0,0 l/m 0 min 0 min 0 W/m 16,1 km/h (3 Bft) 91,49 %
30.12.2019 04:44 1,2 C 0,6 C 0,0 C 80 % 1033,5 hPa 0,0 l/m 0 min 0 min 0 W/m 12,9 km/h (3 Bft) 93,62 %
30.12.2019 04:46 1,2 C 0,6 C 0,0 C 80 % 1033,4 hPa 0,0 l/m 0 min 0 min 0 W/m 16,1 km/h (3 Bft) 93,48 %
30.12.2019 04:48 1,2 C 0,6 C 0,0 C 80 % 1033,4 hPa 0,0 l/m 0 min 0 min 0 W/m 12,9 km/h (3 Bft) 93,62 %
30.12.2019 04:50 1,2 C 0,6 C 0,0 C 80 % 1033,4 hPa 0,0 l/m 0 min 0 min 0 W/m 6,4 km/h (2 Bft) 93,62 %
30.12.2019 04:52 1,2 C 0,6 C 0,0 C 80 % 1033,5 hPa 0,0 l/m 0 min 0 min 0 W/m 12,9 km/h (3 Bft) 91,49 %
30.12.2019 04:54 1,2 C 0,6 C 0,0 C 80 % 1033,5 hPa 0,0 l/m 0 min 0 min 0 W/m 12,9 km/h (3 Bft) 95,74 %
30.12.2019 04:56 1,2 C 0,6 C 0,0 C 80 % 1033,5 hPa 0,0 l/m 0 min 0 min 0 W/m 12,9 km/h (3 Bft) 93,62 %
30.12.2019 04:58 1,2 C 0,6 C 0,0 C 80 % 1033,4 hPa 0,0 l/m 0 min 0 min 0 W/m 6,4 km/h (2 Bft) 95,65 %
30.12.2019 05:00 1,1 C 0,6 C -0,6 C 80 % 1033,3 hPa 0,0 l/m 0 min 0 min 0 W/m 16,1 km/h (3 Bft) 95,74 %
30.12.2019 05:02 1,1 C 0,6 C -0,6 C 80 % 1033,3 hPa 0,0 l/m 0 min 0 min 0 W/m 6,4 km/h (2 Bft) 95,74 %
30.12.2019 05:04 1,1 C 0,6 C -0,6 C 80 % 1033,2 hPa 0,0 l/m 0 min 0 min 0 W/m 12,9 km/h (3 Bft) 95,74 %
30.12.2019 05:06 1,1 C 0,6 C -0,6 C 80 % 1033,2 hPa 0,0 l/m 0 min 0 min 0 W/m 6,4 km/h (2 Bft) 95,74 %
30.12.2019 05:08 1,1 C 0,6 C -0,6 C 80 % 1033,3 hPa 0,0 l/m 0 min 0 min 0 W/m 16,1 km/h (3 Bft) 95,65 %
30.12.2019 05:10 1,1 C 0,6 C 0,0 C 80 % 1033,2 hPa 0,0 l/m 0 min 0 min 0 W/m 12,9 km/h (3 Bft) 95,74 %
30.12.2019 05:12 1,1 C 0,6 C 0,0 C 80 % 1033,2 hPa 0,0 l/m 0 min 0 min 0 W/m 16,1 km/h (3 Bft) 95,74 %
30.12.2019 05:14 1,1 C 0,6 C 0,0 C 80 % 1033,2 hPa 0,0 l/m 0 min 0 min 0 W/m 16,1 km/h (3 Bft) 93,62 %
30.12.2019 05:16 1,1 C 0,6 C 0,0 C 80 % 1033,1 hPa 0,0 l/m 0 min 0 min 0 W/m 19,3 km/h (3 Bft) 95,74 %
30.12.2019 05:18 1,1 C 0,6 C 0,0 C 80 % 1033,2 hPa 0,0 l/m 0 min 0 min 0 W/m 16,1 km/h (3 Bft) 93,62 %
30.12.2019 05:20 1,1 C 0,6 C 0,0 C 80 % 1033,1 hPa 0,0 l/m 0 min 0 min 0 W/m 19,3 km/h (3 Bft) 95,65 %
30.12.2019 05:22 1,1 C 0,6 C 0,0 C 80 % 1033,1 hPa 0,0 l/m 0 min 0 min 0 W/m 12,9 km/h (3 Bft) 97,87 %
30.12.2019 05:24 1,1 C 0,6 C 0,0 C 80 % 1033,1 hPa 0,0 l/m 0 min 0 min 0 W/m 6,4 km/h (2 Bft) 95,74 %
30.12.2019 05:26 1,1 C 0,6 C 0,0 C 80 % 1033,1 hPa 0,0 l/m 0 min 0 min 0 W/m 19,3 km/h (3 Bft) 95,74 %
30.12.2019 05:28 1,1 C 0,6 C 0,0 C 79 % 1033,1 hPa 0,0 l/m 0 min 0 min 0 W/m 16,1 km/h (3 Bft) 97,87 %
30.12.2019 05:30 1,1 C 0,6 C 0,0 C 80 % 1033,2 hPa 0,0 l/m 0 min 0 min 0 W/m 6,4 km/h (2 Bft) 97,87 %
30.12.2019 05:32 1,1 C 0,6 C 0,0 C 80 % 1033,2 hPa 0,0 l/m 0 min 0 min 0 W/m 6,4 km/h (2 Bft) 97,83 %
30.12.2019 05:34 1,1 C 0,6 C 0,0 C 79 % 1033,1 hPa 0,0 l/m 0 min 0 min 0 W/m 6,4 km/h (2 Bft) 97,87 %
30.12.2019 05:36 1,1 C 0,6 C 0,0 C 79 % 1033,1 hPa 0,0 l/m 0 min 0 min 0 W/m 16,1 km/h (3 Bft) 97,87 %
30.12.2019 05:38 1,1 C 0,6 C 0,0 C 79 % 1033,1 hPa 0,0 l/m 0 min 0 min 0 W/m 12,9 km/h (3 Bft) 97,87 %
30.12.2019 05:40 1,1 C 0,6 C 0,0 C 79 % 1033,1 hPa 0,0 l/m 0 min 0 min 0 W/m 16,1 km/h (3 Bft) 97,87 %
30.12.2019 05:42 1,1 C 0,6 C 0,0 C 79 % 1033,1 hPa 0,0 l/m 0 min 0 min 0 W/m 16,1 km/h (3 Bft) 97,87 %
30.12.2019 05:44 1,1 C 0,6 C 0,0 C 79 % 1033,1 hPa 0,0 l/m 0 min 0 min 0 W/m 12,9 km/h (3 Bft) 97,83 %
30.12.2019 05:46 1,1 C 0,6 C 0,0 C 79 % 1033,1 hPa 0,0 l/m 0 min 0 min 0 W/m 16,1 km/h (3 Bft) 100,00 %
30.12.2019 05:48 1,1 C 0,6 C 0,0 C 79 % 1033,1 hPa 0,0 l/m 0 min 0 min 0 W/m 6,4 km/h (2 Bft) 100,00 %
30.12.2019 05:50 1,1 C 0,6 C 0,0 C 79 % 1033,1 hPa 0,0 l/m 0 min 0 min 0 W/m 12,9 km/h (3 Bft) 97,87 %
30.12.2019 05:52 1,1 C 0,6 C 0,0 C 79 % 1033,1 hPa 0,0 l/m 0 min 0 min 0 W/m 16,1 km/h (3 Bft) 100,00 %
30.12.2019 05:54 1,1 C 0,6 C 0,0 C 79 % 1033,1 hPa 0,0 l/m 0 min 0 min 0 W/m 6,4 km/h (2 Bft) 97,83 %
30.12.2019 05:56 1,1 C 0,6 C -0,6 C 79 % 1033,0 hPa 0,0 l/m 0 min 0 min 0 W/m 3,2 km/h (1 Bft) 97,87 %
30.12.2019 05:58 1,1 C 0,6 C -0,6 C 79 % 1033,0 hPa 0,0 l/m 0 min 0 min 0 W/m 6,4 km/h (2 Bft) 100,00 %
30.12.2019 06:00 1,1 C 0,6 C -0,6 C 79 % 1033,0 hPa 0,0 l/m 0 min 0 min 0 W/m 16,1 km/h (3 Bft) 97,87 %
30.12.2019 06:02 1,1 C 0,6 C -0,6 C 79 % 1033,0 hPa 0,0 l/m 0 min 0 min 0 W/m 12,9 km/h (3 Bft) 97,87 %
30.12.2019 06:04 1,1 C 0,6 C -0,6 C 79 % 1032,9 hPa 0,0 l/m 0 min 0 min 0 W/m 6,4 km/h (2 Bft) 100,00 %
30.12.2019 06:08 1,1 C 0,6 C -0,6 C 79 % 1032,9 hPa 0,0 l/m 0 min 0 min 0 W/m 16,1 km/h (3 Bft) 100,00 %
30.12.2019 06:10 1,1 C 0,6 C -0,6 C 79 % 1032,9 hPa 0,0 l/m 0 min 0 min 0 W/m 12,9 km/h (3 Bft) 100,00 %
30.12.2019 06:12 1,1 C 0,6 C 0,0 C 79 % 1032,9 hPa 0,0 l/m 0 min 0 min 0 W/m 12,9 km/h (3 Bft) 100,00 %
30.12.2019 06:14 1,1 C 0,6 C -0,6 C 79 % 1032,9 hPa 0,0 l/m 0 min 0 min 0 W/m 16,1 km/h (3 Bft) 97,87 %
30.12.2019 06:16 1,1 C 0,6 C -0,6 C 79 % 1032,8 hPa 0,0 l/m 0 min 0 min 0 W/m 12,9 km/h (3 Bft) 100,00 %
30.12.2019 06:18 1,1 C 0,0 C -0,6 C 79 % 1032,9 hPa 0,0 l/m 0 min 0 min 0 W/m 3,2 km/h (1 Bft) 97,83 %
30.12.2019 06:20 1,0 C 0,6 C -0,6 C 79 % 1032,9 hPa 0,0 l/m 0 min 0 min 0 W/m 12,9 km/h (3 Bft) 100,00 %
30.12.2019 06:22 1,0 C 0,6 C -0,6 C 79 % 1032,9 hPa 0,0 l/m 0 min 0 min 0 W/m 12,9 km/h (3 Bft) 100,00 %
30.12.2019 06:24 1,0 C 0,6 C -0,6 C 80 % 1032,9 hPa 0,0 l/m 0 min 0 min 0 W/m 12,9 km/h (3 Bft) 100,00 %
30.12.2019 06:26 1,0 C 0,6 C -0,6 C 80 % 1032,9 hPa 0,0 l/m 0 min 0 min 0 W/m 16,1 km/h (3 Bft) 100,00 %
30.12.2019 06:28 1,0 C 0,6 C -0,6 C 80 % 1032,9 hPa 0,0 l/m 0 min 0 min 0 W/m 12,9 km/h (3 Bft) 97,87 %
30.12.2019 06:30 1,0 C 0,6 C -0,6 C 80 % 1032,9 hPa 0,0 l/m 0 min 0 min 0 W/m 19,3 km/h (3 Bft) 100,00 %
30.12.2019 06:32 1,0 C 0,6 C -0,6 C 80 % 1032,9 hPa 0,0 l/m 0 min 0 min 0 W/m 6,4 km/h (2 Bft) 100,00 %
30.12.2019 06:34 1,0 C 0,6 C -0,6 C 80 % 1033,0 hPa 0,0 l/m 0 min 0 min 0 W/m 16,1 km/h (3 Bft) 97,87 %
30.12.2019 06:36 1,0 C 0,0 C -0,6 C 80 % 1032,9 hPa 0,0 l/m 0 min 0 min 0 W/m 6,4 km/h (2 Bft) 95,74 %
30.12.2019 06:38 1,0 C 0,6 C -0,6 C 80 % 1033,0 hPa 0,0 l/m 0 min 0 min 0 W/m 22,5 km/h (4 Bft) 100,00 %
30.12.2019 06:40 0,9 C 0,0 C -0,6 C 80 % 1032,9 hPa 0,0 l/m 0 min 0 min 0 W/m 12,9 km/h (3 Bft) 97,87 %
30.12.2019 06:42 1,0 C 0,0 C -0,6 C 80 % 1033,0 hPa 0,0 l/m 0 min 0 min 0 W/m 6,4 km/h (2 Bft) 95,65 %
30.12.2019 06:44 0,9 C 0,0 C -0,6 C 80 % 1033,1 hPa 0,0 l/m 0 min 0 min 0 W/m 6,4 km/h (2 Bft) 97,87 %
30.12.2019 06:46 0,9 C 0,0 C -0,6 C 80 % 1033,1 hPa 0,0 l/m 0 min 0 min 0 W/m 3,2 km/h (1 Bft) 97,87 %
30.12.2019 06:48 0,9 C 0,0 C -0,6 C 80 % 1033,2 hPa 0,0 l/m 0 min 0 min 0 W/m 6,4 km/h (2 Bft) 97,87 %
30.12.2019 06:50 0,9 C 0,0 C -0,6 C 80 % 1033,2 hPa 0,0 l/m 0 min 0 min 0 W/m 6,4 km/h (2 Bft) 97,87 %
30.12.2019 06:52 0,9 C 0,0 C -0,6 C 80 % 1033,2 hPa 0,0 l/m 0 min 0 min 0 W/m 12,9 km/h (3 Bft) 97,83 %
30.12.2019 06:54 0,9 C 0,0 C -0,6 C 80 % 1033,2 hPa 0,0 l/m 0 min 0 min 0 W/m 6,4 km/h (2 Bft) 97,87 %
30.12.2019 06:56 0,9 C 0,0 C -0,6 C 80 % 1033,2 hPa 0,0 l/m 0 min 0 min 0 W/m 6,4 km/h (2 Bft) 97,87 %
30.12.2019 06:58 0,8 C 0,0 C -0,6 C 80 % 1033,1 hPa 0,0 l/m 0 min 0 min 0 W/m 6,4 km/h (2 Bft) 97,87 %
30.12.2019 07:00 0,8 C 0,0 C -1,1 C 80 % 1033,1 hPa 0,0 l/m 0 min 0 min 0 W/m 6,4 km/h (2 Bft) 93,62 %
30.12.2019 07:02 0,8 C 0,0 C -1,1 C 80 % 1033,1 hPa 0,0 l/m 0 min 0 min 0 W/m 6,4 km/h (2 Bft) 95,74 %
30.12.2019 07:04 0,8 C 0,0 C -1,1 C 80 % 1033,1 hPa 0,0 l/m 0 min 0 min 0 W/m 6,4 km/h (2 Bft) 97,83 %
30.12.2019 07:06 0,8 C 0,0 C -1,1 C 80 % 1033,1 hPa 0,0 l/m 0 min 0 min 0 W/m 12,9 km/h (3 Bft) 95,74 %
30.12.2019 07:08 0,7 C 0,0 C -0,6 C 80 % 1033,0 hPa 0,0 l/m 0 min 0 min 0 W/m 12,9 km/h (3 Bft) 95,74 %
30.12.2019 07:10 0,7 C 0,0 C -0,6 C 80 % 1033,0 hPa 0,0 l/m 0 min 0 min 0 W/m 16,1 km/h (3 Bft) 97,87 %
30.12.2019 07:12 0,7 C 0,0 C -0,6 C 80 % 1033,0 hPa 0,0 l/m 0 min 0 min 0 W/m 12,9 km/h (3 Bft) 95,74 %
30.12.2019 07:14 0,7 C 0,0 C -0,6 C 80 % 1033,0 hPa 0,0 l/m 0 min 0 min 0 W/m 12,9 km/h (3 Bft) 95,74 %
30.12.2019 07:16 0,7 C 0,0 C -0,6 C 80 % 1033,0 hPa 0,0 l/m 0 min 0 min 0 W/m 6,4 km/h (2 Bft) 97,83 %
30.12.2019 07:18 0,6 C 0,0 C -0,6 C 80 % 1033,0 hPa 0,0 l/m 0 min 0 min 0 W/m 12,9 km/h (3 Bft) 95,74 %
30.12.2019 07:20 0,6 C 0,0 C -0,6 C 80 % 1033,0 hPa 0,0 l/m 0 min 0 min 0 W/m 12,9 km/h (3 Bft) 97,87 %
30.12.2019 07:22 0,6 C 0,0 C -0,6 C 80 % 1033,1 hPa 0,0 l/m 0 min 0 min 0 W/m 6,4 km/h (2 Bft) 95,74 %
30.12.2019 07:24 0,6 C 0,0 C -0,6 C 80 % 1033,1 hPa 0,0 l/m 0 min 0 min 0 W/m 3,2 km/h (1 Bft) 95,74 %
30.12.2019 07:26 0,6 C 0,0 C -0,6 C 80 % 1033,1 hPa 0,0 l/m 0 min 0 min 0 W/m 6,4 km/h (2 Bft) 95,74 %
30.12.2019 07:28 0,6 C 0,0 C -0,6 C 80 % 1033,1 hPa 0,0 l/m 0 min 0 min 0 W/m 6,4 km/h (2 Bft) 93,48 %
30.12.2019 07:30 0,6 C 0,0 C -0,6 C 80 % 1033,1 hPa 0,0 l/m 0 min 0 min 0 W/m 6,4 km/h (2 Bft) 97,87 %
30.12.2019 07:32 0,6 C 0,0 C -0,6 C 80 % 1033,1 hPa 0,0 l/m 0 min 0 min 0 W/m 6,4 km/h (2 Bft) 97,87 %
30.12.2019 07:34 0,6 C 0,0 C -0,6 C 80 % 1033,1 hPa 0,0 l/m 0 min 0 min 0 W/m 16,1 km/h (3 Bft) 95,74 %
30.12.2019 07:36 0,6 C 0,0 C -0,6 C 80 % 1033,1 hPa 0,0 l/m 0 min 0 min 0 W/m 12,9 km/h (3 Bft) 97,87 %
30.12.2019 07:38 0,6 C 0,0 C -0,6 C 80 % 1033,0 hPa 0,0 l/m 0 min 0 min 0 W/m 6,4 km/h (2 Bft) 97,87 %
30.12.2019 07:40 0,6 C 0,0 C -0,6 C 80 % 1033,0 hPa 0,0 l/m 0 min 0 min 0 W/m 12,9 km/h (3 Bft) 97,83 %
30.12.2019 07:42 0,6 C 0,0 C -0,6 C 80 % 1032,9 hPa 0,0 l/m 0 min 0 min 0 W/m 12,9 km/h (3 Bft) 97,87 %
30.12.2019 07:44 0,6 C 0,0 C -0,6 C 80 % 1032,8 hPa 0,0 l/m 0 min 0 min 0 W/m 6,4 km/h (2 Bft) 97,87 %
30.12.2019 07:46 0,6 C 0,0 C -0,6 C 80 % 1032,8 hPa 0,0 l/m 0 min 0 min 0 W/m 6,4 km/h (2 Bft) 97,87 %
30.12.2019 07:48 0,6 C 0,0 C -0,6 C 80 % 1032,8 hPa 0,0 l/m 0 min 0 min 0 W/m 12,9 km/h (3 Bft) 97,87 %
30.12.2019 07:50 0,6 C 0,0 C -0,6 C 80 % 1032,7 hPa 0,0 l/m 0 min 0 min 0 W/m 6,4 km/h (2 Bft) 95,65 %
30.12.2019 07:52 0,6 C 0,0 C -0,6 C 80 % 1032,7 hPa 0,0 l/m 0 min 0 min 0 W/m 6,4 km/h (2 Bft) 97,87 %
30.12.2019 07:54 0,6 C 0,0 C -0,6 C 80 % 1032,7 hPa 0,0 l/m 0 min 0 min 0 W/m 6,4 km/h (2 Bft) 97,87 %
30.12.2019 07:56 0,6 C 0,0 C -0,6 C 80 % 1032,7 hPa 0,0 l/m 0 min 0 min 0 W/m 16,1 km/h (3 Bft) 95,74 %
30.12.2019 07:58 0,6 C 0,0 C -0,6 C 80 % 1032,7 hPa 0,0 l/m 0 min 0 min 0 W/m 12,9 km/h (3 Bft) 97,87 %
30.12.2019 08:00 0,6 C 0,0 C -0,6 C 80 % 1032,8 hPa 0,0 l/m 0 min 0 min 0 W/m 16,1 km/h (3 Bft) 97,87 %
30.12.2019 08:02 0,6 C 0,0 C -0,6 C 80 % 1032,8 hPa 0,0 l/m 0 min 0 min 0 W/m 16,1 km/h (3 Bft) 95,65 %
30.12.2019 08:04 0,6 C 0,0 C -0,6 C 81 % 1032,8 hPa 0,0 l/m 0 min 0 min 0 W/m 12,9 km/h (3 Bft) 97,87 %
30.12.2019 08:06 0,6 C 0,0 C -0,6 C 81 % 1032,8 hPa 0,0 l/m 0 min 0 min 0 W/m 12,9 km/h (3 Bft) 95,74 %
30.12.2019 08:08 0,6 C 0,0 C -0,6 C 81 % 1032,8 hPa 0,0 l/m 0 min 0 min 0 W/m 12,9 km/h (3 Bft) 55,32 %
30.12.2019 08:10 0,6 C 0,0 C -0,6 C 81 % 1032,8 hPa 0,0 l/m 0 min 0 min 0 W/m 12,9 km/h (3 Bft) 100,00 %
30.12.2019 08:12 0,6 C 0,0 C -0,6 C 80 % 1032,8 hPa 0,0 l/m 0 min 0 min 0 W/m 12,9 km/h (3 Bft) 100,00 %
30.12.2019 08:14 0,6 C 0,0 C -0,6 C 80 % 1032,8 hPa 0,0 l/m 0 min 0 min 0 W/m 12,9 km/h (3 Bft) 100,00 %
30.12.2019 08:16 0,6 C 0,0 C -0,6 C 81 % 1032,8 hPa 0,0 l/m 0 min 0 min 0 W/m 12,9 km/h (3 Bft) 95,74 %
30.12.2019 08:18 0,6 C 0,0 C -0,6 C 81 % 1032,8 hPa 0,0 l/m 0 min 0 min 0 W/m 16,1 km/h (3 Bft) 100,00 %
30.12.2019 08:20 0,6 C 0,0 C -0,6 C 81 % 1032,8 hPa 0,0 l/m 0 min 0 min 0 W/m 12,9 km/h (3 Bft) 100,00 %
30.12.2019 08:22 0,6 C 0,0 C -0,6 C 81 % 1032,8 hPa 0,0 l/m 0 min 0 min 0 W/m 16,1 km/h (3 Bft) 100,00 %
30.12.2019 08:24 0,6 C 0,0 C -0,6 C 81 % 1032,7 hPa 0,0 l/m 0 min 0 min 0 W/m 12,9 km/h (3 Bft) 100,00 %
30.12.2019 08:26 0,6 C 0,0 C -0,6 C 81 % 1032,8 hPa 0,0 l/m 0 min 0 min 0 W/m 16,1 km/h (3 Bft) 100,00 %
30.12.2019 08:28 0,6 C 0,0 C -0,6 C 81 % 1032,8 hPa 0,0 l/m 0 min 0 min 0 W/m 12,9 km/h (3 Bft) 100,00 %
30.12.2019 08:30 0,6 C 0,0 C -0,6 C 81 % 1032,8 hPa 0,0 l/m 0 min 0 min 0 W/m 16,1 km/h (3 Bft) 100,00 %
30.12.2019 08:32 0,6 C 0,0 C -0,6 C 81 % 1032,8 hPa 0,0 l/m 0 min 0 min 0 W/m 16,1 km/h (3 Bft) 97,87 %
30.12.2019 08:34 0,6 C 0,0 C -0,6 C 81 % 1032,8 hPa 0,0 l/m 0 min 0 min 0 W/m 16,1 km/h (3 Bft) 95,74 %
30.12.2019 08:36 0,6 C 0,0 C -0,6 C 81 % 1032,8 hPa 0,0 l/m 0 min 0 min 0 W/m 12,9 km/h (3 Bft) 95,74 %
30.12.2019 08:38 0,6 C 0,0 C -0,6 C 81 % 1032,7 hPa 0,0 l/m 0 min 0 min 0 W/m 16,1 km/h (3 Bft) 97,83 %
30.12.2019 08:40 0,6 C 0,0 C -0,6 C 81 % 1032,7 hPa 0,0 l/m 0 min 0 min 1 W/m 6,4 km/h (2 Bft) 97,87 %
30.12.2019 08:42 0,6 C 0,0 C -0,6 C 81 % 1032,7 hPa 0,0 l/m 0 min 0 min 5 W/m 16,1 km/h (3 Bft) 95,74 %
30.12.2019 08:44 0,6 C 0,0 C -0,6 C 81 % 1032,7 hPa 0,0 l/m 0 min 0 min 5 W/m 19,3 km/h (3 Bft) 97,87 %
30.12.2019 08:46 0,6 C 0,0 C -0,6 C 81 % 1032,8 hPa 0,0 l/m 0 min 0 min 6 W/m 16,1 km/h (3 Bft) 97,87 %
30.12.2019 08:48 0,6 C 0,0 C -0,6 C 81 % 1032,7 hPa 0,0 l/m 0 min 0 min 7 W/m 12,9 km/h (3 Bft) 95,74 %
30.12.2019 08:50 0,6 C 0,0 C -0,6 C 81 % 1032,8 hPa 0,0 l/m 0 min 0 min 7 W/m 3,2 km/h (1 Bft) 97,83 %
30.12.2019 08:52 0,6 C 0,0 C -0,6 C 81 % 1032,7 hPa 0,0 l/m 0 min 0 min 9 W/m 6,4 km/h (2 Bft) 95,74 %
30.12.2019 08:54 0,6 C 0,6 C -0,6 C 81 % 1032,7 hPa 0,0 l/m 0 min 0 min 9 W/m 3,2 km/h (1 Bft) 97,87 %
30.12.2019 08:56 0,7 C 0,6 C -0,6 C 80 % 1032,7 hPa 0,0 l/m 0 min 0 min 11 W/m 3,2 km/h (1 Bft) 97,87 %
30.12.2019 08:58 0,7 C 0,6 C -0,6 C 81 % 1032,8 hPa 0,0 l/m 0 min 0 min 11 W/m 16,1 km/h (3 Bft) 97,87 %
30.12.2019 09:00 0,7 C 0,6 C -0,6 C 81 % 1032,7 hPa 0,0 l/m 0 min 0 min 12 W/m 12,9 km/h (3 Bft) 95,65 %
30.12.2019 09:02 0,7 C 0,6 C -0,6 C 80 % 1032,8 hPa 0,0 l/m 0 min 0 min 12 W/m 16,1 km/h (3 Bft) 95,74 %
30.12.2019 09:04 0,7 C 0,6 C -0,6 C 80 % 1032,7 hPa 0,0 l/m 0 min 0 min 13 W/m 19,3 km/h (3 Bft) 95,74 %
30.12.2019 09:06 0,7 C 0,6 C -0,6 C 80 % 1032,7 hPa 0,0 l/m 0 min 0 min 14 W/m 16,1 km/h (3 Bft) 91,49 %
30.12.2019 09:08 0,8 C 0,6 C -0,6 C 80 % 1032,7 hPa 0,0 l/m 0 min 0 min 14 W/m 16,1 km/h (3 Bft) 97,87 %
30.12.2019 09:10 0,8 C 0,6 C -0,6 C 80 % 1032,7 hPa 0,0 l/m 0 min 0 min 16 W/m 16,1 km/h (3 Bft) 95,74 %
30.12.2019 09:12 0,8 C 0,6 C -0,6 C 80 % 1032,7 hPa 0,0 l/m 0 min 0 min 16 W/m 16,1 km/h (3 Bft) 95,65 %
30.12.2019 09:14 0,8 C 0,6 C -0,6 C 80 % 1032,8 hPa 0,0 l/m 0 min 0 min 16 W/m 16,1 km/h (3 Bft) 95,74 %
30.12.2019 09:16 0,8 C 0,6 C -0,6 C 80 % 1032,8 hPa 0,0 l/m 0 min 0 min 18 W/m 12,9 km/h (3 Bft) 97,87 %
30.12.2019 09:18 0,8 C 0,6 C -0,6 C 80 % 1032,7 hPa 0,0 l/m 0 min 0 min 18 W/m 19,3 km/h (3 Bft) 95,74 %
30.12.2019 09:20 0,8 C 0,6 C 0,0 C 80 % 1032,8 hPa 0,0 l/m 0 min 0 min 18 W/m 16,1 km/h (3 Bft) 95,74 %
30.12.2019 09:22 0,8 C 0,6 C 0,0 C 80 % 1032,8 hPa 0,0 l/m 0 min 0 min 19 W/m 12,9 km/h (3 Bft) 93,62 %
30.12.2019 09:24 0,9 C 0,6 C 0,0 C 80 % 1032,8 hPa 0,0 l/m 0 min 0 min 19 W/m 16,1 km/h (3 Bft) 95,65 %
30.12.2019 09:26 0,9 C 0,6 C 0,0 C 80 % 1032,8 hPa 0,0 l/m 0 min 0 min 19 W/m 12,9 km/h (3 Bft) 95,74 %
30.12.2019 09:28 0,9 C 0,6 C 0,0 C 80 % 1032,8 hPa 0,0 l/m 0 min 0 min 21 W/m 16,1 km/h (3 Bft) 95,74 %
30.12.2019 09:30 0,9 C 0,6 C 0,0 C 80 % 1032,8 hPa 0,0 l/m 0 min 0 min 21 W/m 19,3 km/h (3 Bft) 95,74 %
30.12.2019 09:32 0,9 C 0,6 C 0,0 C 80 % 1032,8 hPa 0,0 l/m 0 min 0 min 22 W/m 16,1 km/h (3 Bft) 97,87 %
30.12.2019 09:34 0,9 C 0,6 C 0,0 C 80 % 1032,8 hPa 0,0 l/m 0 min 0 min 23 W/m 19,3 km/h (3 Bft) 95,65 %
30.12.2019 09:36 0,9 C 0,6 C 0,0 C 80 % 1032,7 hPa 0,0 l/m 0 min 0 min 23 W/m 19,3 km/h (3 Bft) 93,62 %
30.12.2019 09:38 1,0 C 0,6 C 0,0 C 79 % 1032,8 hPa 0,0 l/m 0 min 0 min 24 W/m 12,9 km/h (3 Bft) 97,87 %
30.12.2019 09:40 1,1 C 1,1 C 0,0 C 79 % 1032,8 hPa 0,0 l/m 0 min 0 min 25 W/m 22,5 km/h (4 Bft) 97,87 %
30.12.2019 09:42 1,1 C 1,1 C 0,0 C 79 % 1032,8 hPa 0,0 l/m 0 min 0 min 26 W/m 12,9 km/h (3 Bft) 91,49 %
30.12.2019 09:44 1,1 C 1,1 C 0,0 C 79 % 1032,8 hPa 0,0 l/m 0 min 0 min 26 W/m 22,5 km/h (4 Bft) 93,62 %
30.12.2019 09:46 1,1 C 1,1 C 0,0 C 79 % 1032,8 hPa 0,0 l/m 0 min 0 min 28 W/m 19,3 km/h (3 Bft) 97,83 %
30.12.2019 09:48 1,2 C 1,1 C 0,0 C 79 % 1032,8 hPa 0,0 l/m 0 min 0 min 28 W/m 16,1 km/h (3 Bft) 95,74 %
30.12.2019 09:50 1,2 C 1,1 C 0,0 C 79 % 1032,8 hPa 0,0 l/m 0 min 0 min 29 W/m 16,1 km/h (3 Bft) 97,87 %
30.12.2019 09:52 1,2 C 1,1 C 0,0 C 79 % 1032,9 hPa 0,0 l/m 0 min 0 min 32 W/m 16,1 km/h (3 Bft) 93,62 %
30.12.2019 09:54 1,2 C 1,1 C 0,0 C 79 % 1032,9 hPa 0,0 l/m 0 min 0 min 37 W/m 12,9 km/h (3 Bft) 97,87 %
30.12.2019 09:56 1,2 C 1,1 C 0,0 C 79 % 1032,9 hPa 0,0 l/m 0 min 0 min 42 W/m 6,4 km/h (2 Bft) 97,87 %
30.12.2019 09:58 1,3 C 1,1 C 0,6 C 79 % 1033,0 hPa 0,0 l/m 0 min 0 min 39 W/m 19,3 km/h (3 Bft) 97,83 %
30.12.2019 10:00 1,3 C 1,1 C 0,6 C 79 % 1032,9 hPa 0,0 l/m 0 min 0 min 40 W/m 19,3 km/h (3 Bft) 97,87 %
30.12.2019 10:02 1,3 C 1,1 C 0,6 C 79 % 1032,9 hPa 0,0 l/m 0 min 0 min 48 W/m 19,3 km/h (3 Bft) 97,87 %
30.12.2019 10:04 1,3 C 1,1 C 0,6 C 79 % 1032,9 hPa 0,0 l/m 0 min 0 min 74 W/m 16,1 km/h (3 Bft) 100,00 %
30.12.2019 10:06 1,4 C 1,1 C 0,6 C 79 % 1032,9 hPa 0,0 l/m 0 min 0 min 73 W/m 12,9 km/h (3 Bft) 100,00 %
30.12.2019 10:08 1,4 C 1,1 C 0,6 C 79 % 1032,9 hPa 0,0 l/m 2 min 0 min 86 W/m 12,9 km/h (3 Bft) 95,74 %
30.12.2019 10:10 1,4 C 1,1 C 0,6 C 79 % 1033,0 hPa 0,0 l/m 2 min 0 min 107 W/m 12,9 km/h (3 Bft) 97,83 %
30.12.2019 10:12 1,5 C 1,7 C 0,6 C 79 % 1032,9 hPa 0,0 l/m 2 min 0 min 93 W/m 12,9 km/h (3 Bft) 97,87 %
30.12.2019 10:14 1,5 C 2,2 C 0,6 C 79 % 1033,0 hPa 0,0 l/m 2 min 0 min 104 W/m 16,1 km/h (3 Bft) 97,87 %
30.12.2019 10:16 1,6 C 2,2 C 0,6 C 78 % 1032,9 hPa 0,0 l/m 2 min 0 min 118 W/m 16,1 km/h (3 Bft) 97,87 %
30.12.2019 10:18 1,6 C 3,3 C 0,6 C 78 % 1032,9 hPa 0,0 l/m 2 min 0 min 124 W/m 12,9 km/h (3 Bft) 97,87 %
30.12.2019 10:20 1,7 C 3,3 C 0,6 C 78 % 1032,9 hPa 0,0 l/m 2 min 0 min 122 W/m 6,4 km/h (2 Bft) 95,74 %
30.12.2019 10:22 1,7 C 3,9 C 0,6 C 78 % 1032,9 hPa 0,0 l/m 2 min 0 min 122 W/m 3,2 km/h (1 Bft) 97,83 %
30.12.2019 10:24 1,8 C 3,9 C 1,1 C 78 % 1033,0 hPa 0,0 l/m 2 min 0 min 121 W/m 3,2 km/h (1 Bft) 97,87 %
30.12.2019 10:26 1,8 C 4,4 C 1,1 C 78 % 1033,0 hPa 0,0 l/m 2 min 0 min 164 W/m 12,9 km/h (3 Bft) 95,74 %
30.12.2019 10:28 1,9 C 4,4 C 1,1 C 78 % 1032,9 hPa 0,0 l/m 2 min 0 min 172 W/m 22,5 km/h (4 Bft) 97,87 %
30.12.2019 10:30 2,0 C 5,0 C 1,1 C 78 % 1032,9 hPa 0,0 l/m 2 min 0 min 176 W/m 19,3 km/h (3 Bft) 95,74 %
30.12.2019 10:32 2,1 C 5,6 C 1,1 C 78 % 1033,0 hPa 0,0 l/m 2 min 0 min 174 W/m 6,4 km/h (2 Bft) 97,83 %
30.12.2019 10:34 2,2 C 5,6 C 1,1 C 77 % 1032,9 hPa 0,0 l/m 2 min 0 min 175 W/m 16,1 km/h (3 Bft) 97,87 %
30.12.2019 10:36 2,2 C 5,6 C 1,1 C 77 % 1033,0 hPa 0,0 l/m 2 min 0 min 177 W/m 22,5 km/h (4 Bft) 97,87 %
30.12.2019 10:38 2,3 C 5,6 C 1,1 C 77 % 1033,0 hPa 0,0 l/m 2 min 0 min 157 W/m 16,1 km/h (3 Bft) 97,87 %
30.12.2019 10:40 2,4 C 5,6 C 1,1 C 77 % 1032,9 hPa 0,0 l/m 2 min 0 min 144 W/m 19,3 km/h (3 Bft) 91,49 %
30.12.2019 10:42 2,6 C 6,1 C 1,1 C 76 % 1032,9 hPa 0,0 l/m 2 min 0 min 170 W/m 12,9 km/h (3 Bft) 95,74 %
30.12.2019 10:44 2,6 C 6,1 C 1,1 C 76 % 1032,9 hPa 0,0 l/m 2 min 0 min 186 W/m 16,1 km/h (3 Bft) 100,00 %
30.12.2019 10:46 2,7 C 5,0 C 1,7 C 76 % 1032,9 hPa 0,0 l/m 2 min 0 min 165 W/m 16,1 km/h (3 Bft) 100,00 %
30.12.2019 10:48 2,8 C 5,6 C 1,7 C 76 % 1032,7 hPa 0,0 l/m 0 min 0 min 107 W/m 12,9 km/h (3 Bft) 97,87 %
30.12.2019 10:50 2,9 C 5,6 C 1,7 C 75 % 1032,8 hPa 0,0 l/m 2 min 0 min 153 W/m 12,9 km/h (3 Bft) 97,87 %
30.12.2019 10:52 2,9 C 5,6 C 1,7 C 75 % 1032,7 hPa 0,0 l/m 2 min 0 min 187 W/m 16,1 km/h (3 Bft) 97,87 %
30.12.2019 10:54 3,0 C 5,0 C 1,7 C 75 % 1032,7 hPa 0,0 l/m 2 min 0 min 180 W/m 16,1 km/h (3 Bft) 97,87 %
30.12.2019 10:56 3,1 C 4,4 C 1,7 C 74 % 1032,7 hPa 0,0 l/m 2 min 0 min 140 W/m 12,9 km/h (3 Bft) 100,00 %
30.12.2019 10:58 3,1 C 4,4 C 1,7 C 74 % 1032,8 hPa 0,0 l/m 2 min 0 min 134 W/m 16,1 km/h (3 Bft) 100,00 %
30.12.2019 11:00 3,2 C 4,4 C 1,7 C 74 % 1032,7 hPa 0,0 l/m 2 min 0 min 139 W/m 16,1 km/h (3 Bft) 95,74 %
30.12.2019 11:02 3,3 C 5,0 C 1,7 C 74 % 1032,7 hPa 0,0 l/m 0 min 0 min 118 W/m 16,1 km/h (3 Bft) 100,00 %
30.12.2019 11:04 3,3 C 5,0 C 1,7 C 74 % 1032,6 hPa 0,0 l/m 2 min 0 min 133 W/m 12,9 km/h (3 Bft) 100,00 %
30.12.2019 11:06 3,3 C 4,4 C 1,7 C 74 % 1032,6 hPa 0,0 l/m 2 min 0 min 194 W/m 19,3 km/h (3 Bft) 97,87 %
30.12.2019 11:08 3,4 C 5,0 C 2,2 C 73 % 1032,6 hPa 0,0 l/m 2 min 0 min 139 W/m 19,3 km/h (3 Bft) 100,00 %
30.12.2019 11:10 3,4 C 6,1 C 2,2 C 73 % 1032,6 hPa 0,0 l/m 2 min 0 min 161 W/m 12,9 km/h (3 Bft) 100,00 %
30.12.2019 11:12 3,4 C 6,1 C 2,2 C 73 % 1032,6 hPa 0,0 l/m 2 min 0 min 132 W/m 16,1 km/h (3 Bft) 100,00 %
30.12.2019 11:14 3,5 C 6,7 C 2,2 C 73 % 1032,7 hPa 0,0 l/m 2 min 0 min 161 W/m 19,3 km/h (3 Bft) 97,87 %
30.12.2019 11:16 3,6 C 6,7 C 2,2 C 73 % 1032,5 hPa 0,0 l/m 2 min 0 min 227 W/m 22,5 km/h (4 Bft) 100,00 %
30.12.2019 11:18 3,7 C 7,2 C 2,2 C 73 % 1032,6 hPa 0,0 l/m 2 min 0 min 245 W/m 16,1 km/h (3 Bft) 97,87 %
30.12.2019 11:20 3,7 C 7,2 C 2,2 C 73 % 1032,5 hPa 0,0 l/m 2 min 0 min 238 W/m 19,3 km/h (3 Bft) 97,83 %
30.12.2019 11:22 3,8 C 7,8 C 2,2 C 72 % 1032,5 hPa 0,0 l/m 2 min 0 min 254 W/m 16,1 km/h (3 Bft) 97,87 %
30.12.2019 11:24 3,9 C 7,8 C 2,2 C 72 % 1032,5 hPa 0,0 l/m 2 min 0 min 256 W/m 19,3 km/h (3 Bft) 97,87 %
30.12.2019 11:26 3,9 C 7,8 C 2,2 C 72 % 1032,5 hPa 0,0 l/m 2 min 0 min 257 W/m 12,9 km/h (3 Bft) 95,74 %
30.12.2019 11:28 4,1 C 7,8 C 2,8 C 72 % 1032,4 hPa 0,0 l/m 2 min 0 min 259 W/m 6,4 km/h (2 Bft) 97,87 %
30.12.2019 11:30 4,1 C 8,3 C 2,8 C 72 % 1032,5 hPa 0,0 l/m 2 min 0 min 261 W/m 6,4 km/h (2 Bft) 97,87 %
30.12.2019 11:32 4,2 C 8,3 C 2,8 C 71 % 1032,3 hPa 0,0 l/m 2 min 0 min 264 W/m 3,2 km/h (1 Bft) 95,65 %
30.12.2019 11:34 4,3 C 8,9 C 2,8 C 71 % 1032,4 hPa 0,0 l/m 2 min 0 min 265 W/m 6,4 km/h (2 Bft) 97,87 %
30.12.2019 11:36 4,4 C 8,9 C 2,8 C 71 % 1032,5 hPa 0,0 l/m 2 min 0 min 268 W/m 12,9 km/h (3 Bft) 97,87 %
30.12.2019 11:38 4,5 C 8,9 C 2,8 C 71 % 1032,4 hPa 0,0 l/m 2 min 0 min 269 W/m 16,1 km/h (3 Bft) 97,87 %
30.12.2019 11:40 4,6 C 8,3 C 2,8 C 70 % 1032,4 hPa 0,0 l/m 2 min 0 min 272 W/m 19,3 km/h (3 Bft) 97,87 %
30.12.2019 11:42 4,7 C 8,3 C 2,8 C 70 % 1032,4 hPa 0,0 l/m 2 min 0 min 272 W/m 16,1 km/h (3 Bft) 97,83 %
30.12.2019 11:44 4,7 C 8,3 C 2,8 C 70 % 1032,4 hPa 0,0 l/m 2 min 0 min 274 W/m 16,1 km/h (3 Bft) 100,00 %
30.12.2019 11:46 4,8 C 8,3 C 2,8 C 69 % 1032,3 hPa 0,0 l/m 2 min 0 min 276 W/m 19,3 km/h (3 Bft) 55,32 %
30.12.2019 11:48 4,8 C 8,3 C 3,3 C 69 % 1032,4 hPa 0,0 l/m 2 min 0 min 278 W/m 19,3 km/h (3 Bft) 100,00 %
30.12.2019 11:50 4,9 C 8,3 C 3,3 C 69 % 1032,3 hPa 0,0 l/m 2 min 0 min 278 W/m 19,3 km/h (3 Bft) 97,87 %
30.12.2019 11:52 5,0 C 7,8 C 3,3 C 68 % 1032,2 hPa 0,0 l/m 2 min 0 min 280 W/m 25,7 km/h (4 Bft) 100,00 %
30.12.2019 11:54 5,1 C 7,8 C 3,3 C 68 % 1032,2 hPa 0,0 l/m 2 min 0 min 281 W/m 22,5 km/h (4 Bft) 97,83 %
30.12.2019 11:56 5,1 C 7,8 C 3,3 C 68 % 1032,1 hPa 0,0 l/m 2 min 0 min 283 W/m 19,3 km/h (3 Bft) 97,87 %
30.12.2019 11:58 5,1 C 7,8 C 3,3 C 67 % 1032,0 hPa 0,0 l/m 2 min 0 min 286 W/m 22,5 km/h (4 Bft) 95,74 %
30.12.2019 12:00 5,1 C 7,8 C 3,3 C 68 % 1032,1 hPa 0,0 l/m 2 min 0 min 287 W/m 12,9 km/h (3 Bft) 97,87 %
30.12.2019 12:02 5,2 C 7,8 C 3,3 C 68 % 1032,1 hPa 0,0 l/m 2 min 0 min 289 W/m 22,5 km/h (4 Bft) 97,87 %
30.12.2019 12:04 5,2 C 7,2 C 3,3 C 68 % 1032,0 hPa 0,0 l/m 2 min 0 min 292 W/m 12,9 km/h (3 Bft) 95,74 %
30.12.2019 12:08 5,3 C 6,7 C 3,9 C 68 % 1031,9 hPa 0,0 l/m 4 min 0 min 232 W/m 16,1 km/h (3 Bft) 97,85 %
30.12.2019 12:10 5,3 C 6,7 C 3,9 C 68 % 1031,9 hPa 0,0 l/m 2 min 0 min 279 W/m 12,9 km/h (3 Bft) 95,74 %
30.12.2019 12:12 5,3 C 7,2 C 3,9 C 67 % 1031,9 hPa 0,0 l/m 2 min 0 min 293 W/m 3,2 km/h (1 Bft) 97,87 %
30.12.2019 12:14 5,4 C 7,8 C 3,9 C 68 % 1031,9 hPa 0,0 l/m 2 min 0 min 303 W/m 12,9 km/h (3 Bft) 95,74 %
30.12.2019 12:16 5,4 C 8,3 C 3,9 C 68 % 1031,8 hPa 0,0 l/m 2 min 0 min 311 W/m 6,4 km/h (2 Bft) 97,87 %
30.12.2019 12:18 5,5 C 9,4 C 3,9 C 67 % 1031,9 hPa 0,0 l/m 2 min 0 min 317 W/m 3,2 km/h (1 Bft) 97,83 %
30.12.2019 12:20 5,6 C 9,4 C 4,4 C 67 % 1031,8 hPa 0,0 l/m 2 min 0 min 313 W/m 3,2 km/h (1 Bft) 97,87 %
30.12.2019 12:22 5,6 C 10,0 C 4,4 C 67 % 1031,9 hPa 0,0 l/m 2 min 0 min 310 W/m 6,4 km/h (2 Bft) 97,87 %
30.12.2019 12:24 5,7 C 8,9 C 4,4 C 67 % 1031,8 hPa 0,0 l/m 2 min 0 min 336 W/m 6,4 km/h (2 Bft) 97,87 %
30.12.2019 12:26 5,7 C 9,4 C 4,4 C 67 % 1031,8 hPa 0,0 l/m 2 min 0 min 323 W/m 3,2 km/h (1 Bft) 97,87 %
30.12.2019 12:28 5,8 C 10,0 C 5,0 C 67 % 1031,8 hPa 0,0 l/m 2 min 0 min 360 W/m 3,2 km/h (1 Bft) 100,00 %
30.12.2019 12:30 5,9 C 9,4 C 5,0 C 66 % 1031,7 hPa 0,0 l/m 2 min 0 min 355 W/m 12,9 km/h (3 Bft) 100,00 %
30.12.2019 12:32 6,0 C 8,3 C 5,0 C 66 % 1031,6 hPa 0,0 l/m 2 min 0 min 174 W/m 16,1 km/h (3 Bft) 100,00 %
30.12.2019 12:34 6,1 C 7,8 C 5,0 C 67 % 1031,6 hPa 0,0 l/m 2 min 0 min 164 W/m 16,1 km/h (3 Bft) 100,00 %
30.12.2019 12:36 6,1 C 7,2 C 5,0 C 66 % 1031,5 hPa 0,0 l/m 2 min 0 min 165 W/m 19,3 km/h (3 Bft) 97,87 %
30.12.2019 12:38 6,1 C 7,8 C 5,0 C 66 % 1031,5 hPa 0,0 l/m 2 min 0 min 187 W/m 16,1 km/h (3 Bft) 100,00 %
30.12.2019 12:40 6,2 C 8,3 C 5,0 C 66 % 1031,4 hPa 0,0 l/m 2 min 0 min 263 W/m 16,1 km/h (3 Bft) 100,00 %
30.12.2019 12:42 6,2 C 9,4 C 5,0 C 66 % 1031,3 hPa 0,0 l/m 2 min 0 min 289 W/m 16,1 km/h (3 Bft) 100,00 %
30.12.2019 12:44 6,3 C 10,0 C 5,6 C 67 % 1031,3 hPa 0,0 l/m 2 min 0 min 328 W/m 12,9 km/h (3 Bft) 97,87 %
30.12.2019 12:46 6,3 C 9,4 C 5,6 C 66 % 1031,4 hPa 0,0 l/m 2 min 0 min 246 W/m 12,9 km/h (3 Bft) 100,00 %
30.12.2019 12:48 6,4 C 10,0 C 5,6 C 67 % 1031,5 hPa 0,0 l/m 2 min 0 min 226 W/m 12,9 km/h (3 Bft) 100,00 %
30.12.2019 12:50 6,4 C 9,4 C 5,6 C 66 % 1031,3 hPa 0,0 l/m 2 min 0 min 275 W/m 16,1 km/h (3 Bft) 97,87 %
30.12.2019 12:52 6,5 C 10,6 C 5,6 C 66 % 1031,3 hPa 0,0 l/m 2 min 0 min 323 W/m 16,1 km/h (3 Bft) 97,83 %
30.12.2019 12:54 6,6 C 10,6 C 5,6 C 66 % 1031,3 hPa 0,0 l/m 2 min 0 min 293 W/m 3,2 km/h (1 Bft) 97,87 %
30.12.2019 12:56 6,6 C 10,6 C 5,6 C 66 % 1031,3 hPa 0,0 l/m 2 min 0 min 280 W/m 16,1 km/h (3 Bft) 97,87 %
30.12.2019 12:58 6,7 C 10,0 C 5,6 C 65 % 1031,3 hPa 0,0 l/m 2 min 0 min 299 W/m 19,3 km/h (3 Bft) 97,87 %
30.12.2019 13:00 6,8 C 10,6 C 5,6 C 65 % 1031,4 hPa 0,0 l/m 2 min 0 min 277 W/m 12,9 km/h (3 Bft) 95,74 %
30.12.2019 13:02 6,8 C 10,6 C 5,6 C 65 % 1031,3 hPa 0,0 l/m 2 min 0 min 298 W/m 22,5 km/h (4 Bft) 95,74 %
30.12.2019 13:04 6,9 C 9,4 C 5,6 C 65 % 1031,4 hPa 0,0 l/m 2 min 0 min 261 W/m 22,5 km/h (4 Bft) 97,83 %
30.12.2019 13:06 6,9 C 10,0 C 5,6 C 65 % 1031,3 hPa 0,0 l/m 2 min 0 min 301 W/m 16,1 km/h (3 Bft) 97,87 %
30.12.2019 13:08 7,0 C 11,7 C 5,6 C 65 % 1031,3 hPa 0,0 l/m 2 min 0 min 366 W/m 12,9 km/h (3 Bft) 95,74 %
30.12.2019 13:10 7,1 C 12,2 C 6,1 C 66 % 1031,4 hPa 0,0 l/m 2 min 0 min 276 W/m 16,1 km/h (3 Bft) 97,87 %
30.12.2019 13:12 7,2 C 11,7 C 6,1 C 65 % 1031,3 hPa 0,0 l/m 2 min 0 min 355 W/m 16,1 km/h (3 Bft) 97,87 %
30.12.2019 13:14 7,2 C 12,2 C 6,1 C 65 % 1031,2 hPa 0,0 l/m 2 min 0 min 274 W/m 12,9 km/h (3 Bft) 97,87 %
30.12.2019 13:16 7,3 C 12,8 C 6,7 C 65 % 1031,2 hPa 0,0 l/m 2 min 0 min 273 W/m 12,9 km/h (3 Bft) 97,83 %
30.12.2019 13:18 7,4 C 13,9 C 6,7 C 64 % 1031,2 hPa 0,0 l/m 2 min 0 min 272 W/m 6,4 km/h (2 Bft) 97,87 %
30.12.2019 13:20 7,5 C 12,8 C 6,7 C 64 % 1031,1 hPa 0,0 l/m 2 min 0 min 373 W/m 16,1 km/h (3 Bft) 97,87 %
30.12.2019 13:22 7,6 C 12,2 C 6,7 C 64 % 1031,1 hPa 0,0 l/m 2 min 0 min 366 W/m 16,1 km/h (3 Bft) 95,74 %
30.12.2019 13:24 7,7 C 10,0 C 6,7 C 63 % 1031,0 hPa 0,0 l/m 2 min 0 min 242 W/m 12,9 km/h (3 Bft) 97,87 %
30.12.2019 13:26 7,7 C 8,9 C 6,7 C 63 % 1031,0 hPa 0,0 l/m 0 min 0 min 143 W/m 19,3 km/h (3 Bft) 100,00 %
30.12.2019 13:28 7,7 C 8,3 C 6,7 C 62 % 1031,0 hPa 0,0 l/m 2 min 0 min 146 W/m 12,9 km/h (3 Bft) 97,87 %
30.12.2019 13:30 7,8 C 8,3 C 6,1 C 62 % 1031,1 hPa 0,0 l/m 0 min 0 min 137 W/m 6,4 km/h (2 Bft) 100,00 %
30.12.2019 13:32 7,8 C 7,8 C 6,1 C 62 % 1031,0 hPa 0,0 l/m 0 min 0 min 137 W/m 12,9 km/h (3 Bft) 100,00 %
30.12.2019 13:34 7,8 C 7,8 C 6,1 C 62 % 1031,0 hPa 0,0 l/m 2 min 0 min 146 W/m 12,9 km/h (3 Bft) 100,00 %
30.12.2019 13:36 7,8 C 8,3 C 6,7 C 63 % 1031,0 hPa 0,0 l/m 2 min 0 min 162 W/m 12,9 km/h (3 Bft) 100,00 %
30.12.2019 13:38 7,8 C 10,0 C 6,7 C 62 % 1031,0 hPa 0,0 l/m 2 min 0 min 326 W/m 16,1 km/h (3 Bft) 100,00 %
30.12.2019 13:40 7,7 C 11,1 C 6,7 C 63 % 1030,9 hPa 0,0 l/m 2 min 0 min 259 W/m 19,3 km/h (3 Bft) 100,00 %
30.12.2019 13:42 7,8 C 11,1 C 6,7 C 63 % 1030,9 hPa 0,0 l/m 2 min 0 min 258 W/m 12,9 km/h (3 Bft) 100,00 %
30.12.2019 13:44 7,8 C 10,6 C 6,7 C 63 % 1030,9 hPa 0,0 l/m 2 min 0 min 268 W/m 16,1 km/h (3 Bft) 100,00 %
30.12.2019 13:46 7,8 C 9,4 C 6,7 C 64 % 1030,8 hPa 0,0 l/m 0 min 0 min 132 W/m 6,4 km/h (2 Bft) 100,00 %
30.12.2019 13:48 7,8 C 8,3 C 6,7 C 63 % 1030,9 hPa 0,0 l/m 0 min 0 min 122 W/m 12,9 km/h (3 Bft) 100,00 %
30.12.2019 13:50 7,8 C 7,8 C 6,7 C 63 % 1031,0 hPa 0,0 l/m 0 min 0 min 117 W/m 6,4 km/h (2 Bft) 100,00 %
30.12.2019 13:52 7,8 C 7,8 C 6,7 C 63 % 1031,0 hPa 0,0 l/m 0 min 0 min 114 W/m 12,9 km/h (3 Bft) 100,00 %
30.12.2019 13:54 7,8 C 7,2 C 6,1 C 63 % 1030,9 hPa 0,0 l/m 0 min 0 min 111 W/m 19,3 km/h (3 Bft) 100,00 %
30.12.2019 13:56 7,7 C 7,2 C 6,1 C 63 % 1030,9 hPa 0,0 l/m 0 min 0 min 106 W/m 16,1 km/h (3 Bft) 100,00 %
30.12.2019 13:58 7,7 C 7,2 C 6,1 C 63 % 1030,8 hPa 0,0 l/m 0 min 0 min 105 W/m 12,9 km/h (3 Bft) 97,87 %
30.12.2019 14:00 7,7 C 7,8 C 6,1 C 63 % 1030,9 hPa 0,0 l/m 0 min 0 min 120 W/m 6,4 km/h (2 Bft) 97,87 %
30.12.2019 14:02 7,6 C 7,2 C 6,1 C 64 % 1030,8 hPa 0,0 l/m 0 min 0 min 97 W/m 19,3 km/h (3 Bft) 93,48 %
30.12.2019 14:04 7,6 C 7,2 C 6,1 C 64 % 1030,8 hPa 0,0 l/m 0 min 0 min 83 W/m 12,9 km/h (3 Bft) 97,87 %
30.12.2019 14:06 7,6 C 7,2 C 6,1 C 64 % 1030,8 hPa 0,0 l/m 0 min 0 min 71 W/m 12,9 km/h (3 Bft) 97,87 %
30.12.2019 14:08 7,5 C 6,7 C 5,6 C 64 % 1030,7 hPa 0,0 l/m 0 min 0 min 61 W/m 12,9 km/h (3 Bft) 97,87 %
30.12.2019 14:10 7,4 C 6,7 C 5,6 C 65 % 1030,7 hPa 0,0 l/m 0 min 0 min 54 W/m 3,2 km/h (1 Bft) 95,74 %
30.12.2019 14:12 7,4 C 6,7 C 5,6 C 65 % 1030,7 hPa 0,0 l/m 0 min 0 min 55 W/m 12,9 km/h (3 Bft) 95,74 %
30.12.2019 14:14 7,4 C 7,8 C 5,6 C 65 % 1030,7 hPa 0,0 l/m 0 min 0 min 82 W/m 16,1 km/h (3 Bft) 97,83 %
30.12.2019 14:16 7,3 C 10,0 C 5,6 C 66 % 1030,6 hPa 0,0 l/m 2 min 0 min 224 W/m 6,4 km/h (2 Bft) 95,74 %
30.12.2019 14:18 7,3 C 10,0 C 5,6 C 66 % 1030,5 hPa 0,0 l/m 2 min 0 min 239 W/m 16,1 km/h (3 Bft) 95,74 %
30.12.2019 14:20 7,3 C 10,6 C 5,6 C 66 % 1030,5 hPa 0,0 l/m 2 min 0 min 232 W/m 16,1 km/h (3 Bft) 95,74 %
30.12.2019 14:22 7,3 C 10,6 C 5,6 C 66 % 1030,5 hPa 0,0 l/m 2 min 0 min 228 W/m 6,4 km/h (2 Bft) 97,87 %
30.12.2019 14:24 7,3 C 10,6 C 5,6 C 65 % 1030,4 hPa 0,0 l/m 2 min 0 min 223 W/m 16,1 km/h (3 Bft) 97,87 %
30.12.2019 14:26 7,3 C 10,0 C 5,6 C 65 % 1030,4 hPa 0,0 l/m 2 min 0 min 218 W/m 16,1 km/h (3 Bft) 95,65 %
30.12.2019 14:28 7,3 C 10,0 C 5,6 C 65 % 1030,4 hPa 0,0 l/m 2 min 0 min 214 W/m 19,3 km/h (3 Bft) 93,62 %
30.12.2019 14:30 7,3 C 10,0 C 5,6 C 65 % 1030,3 hPa 0,0 l/m 2 min 0 min 209 W/m 22,5 km/h (4 Bft) 95,74 %
30.12.2019 14:32 7,3 C 10,6 C 5,6 C 65 % 1030,3 hPa 0,0 l/m 2 min 0 min 206 W/m 16,1 km/h (3 Bft) 97,87 %
30.12.2019 14:34 7,3 C 10,0 C 5,6 C 65 % 1030,2 hPa 0,0 l/m 2 min 0 min 202 W/m 19,3 km/h (3 Bft) 97,87 %
30.12.2019 14:36 7,3 C 10,0 C 5,6 C 65 % 1030,2 hPa 0,0 l/m 2 min 0 min 199 W/m 16,1 km/h (3 Bft) 95,65 %
30.12.2019 14:38 7,3 C 8,9 C 5,6 C 65 % 1030,1 hPa 0,0 l/m 2 min 0 min 194 W/m 16,1 km/h (3 Bft) 95,74 %
30.12.2019 14:40 7,3 C 7,8 C 5,6 C 65 % 1030,1 hPa 0,0 l/m 2 min 0 min 190 W/m 22,5 km/h (4 Bft) 95,74 %
30.12.2019 14:42 7,3 C 6,7 C 5,6 C 65 % 1030,1 hPa 0,0 l/m 2 min 0 min 187 W/m 22,5 km/h (4 Bft) 95,74 %
30.12.2019 14:44 7,2 C 6,7 C 5,6 C 65 % 1030,1 hPa 0,0 l/m 2 min 0 min 183 W/m 16,1 km/h (3 Bft) 95,74 %
30.12.2019 14:46 7,2 C 6,7 C 5,6 C 65 % 1030,0 hPa 0,0 l/m 2 min 0 min 144 W/m 16,1 km/h (3 Bft) 97,87 %
30.12.2019 14:48 7,2 C 6,1 C 5,6 C 65 % 1030,0 hPa 0,0 l/m 0 min 0 min 62 W/m 19,3 km/h (3 Bft) 97,83 %
30.12.2019 14:50 7,1 C 6,1 C 5,6 C 66 % 1030,0 hPa 0,0 l/m 0 min 0 min 35 W/m 16,1 km/h (3 Bft) 95,74 %
30.12.2019 14:52 7,1 C 6,1 C 5,0 C 66 % 1030,0 hPa 0,0 l/m 0 min 0 min 34 W/m 22,5 km/h (4 Bft) 97,87 %
30.12.2019 14:54 7,1 C 6,1 C 5,0 C 66 % 1030,0 hPa 0,0 l/m 0 min 0 min 33 W/m 19,3 km/h (3 Bft) 97,87 %
30.12.2019 14:56 7,0 C 6,1 C 5,0 C 66 % 1030,0 hPa 0,0 l/m 0 min 0 min 33 W/m 16,1 km/h (3 Bft) 97,87 %
30.12.2019 14:58 7,0 C 6,1 C 5,6 C 66 % 1030,0 hPa 0,0 l/m 0 min 0 min 33 W/m 6,4 km/h (2 Bft) 97,87 %
30.12.2019 15:00 6,9 C 6,1 C 5,0 C 66 % 1029,9 hPa 0,0 l/m 0 min 0 min 33 W/m 16,1 km/h (3 Bft) 97,83 %
30.12.2019 15:02 6,9 C 6,1 C 5,0 C 67 % 1029,9 hPa 0,0 l/m 0 min 0 min 32 W/m 3,2 km/h (1 Bft) 93,62 %
30.12.2019 15:04 6,9 C 6,1 C 5,0 C 67 % 1029,8 hPa 0,0 l/m 0 min 0 min 32 W/m 3,2 km/h (1 Bft) 97,87 %
30.12.2019 15:06 6,9 C 6,1 C 5,6 C 67 % 1029,8 hPa 0,0 l/m 0 min 0 min 32 W/m 19,3 km/h (3 Bft) 95,74 %
30.12.2019 15:08 6,9 C 6,1 C 5,0 C 67 % 1029,7 hPa 0,0 l/m 0 min 0 min 32 W/m 3,2 km/h (1 Bft) 95,74 %
30.12.2019 15:10 6,8 C 6,1 C 5,0 C 67 % 1029,7 hPa 0,0 l/m 0 min 0 min 30 W/m 12,9 km/h (3 Bft) 93,62 %
30.12.2019 15:12 6,8 C 6,1 C 5,0 C 67 % 1029,7 hPa 0,0 l/m 0 min 0 min 30 W/m 12,9 km/h (3 Bft) 95,65 %
30.12.2019 15:14 6,8 C 6,1 C 5,0 C 68 % 1029,7 hPa 0,0 l/m 0 min 0 min 30 W/m 16,1 km/h (3 Bft) 93,62 %
30.12.2019 15:16 6,8 C 6,1 C 5,0 C 68 % 1029,7 hPa 0,0 l/m 0 min 0 min 30 W/m 12,9 km/h (3 Bft) 97,87 %
30.12.2019 15:18 6,8 C 6,1 C 5,0 C 68 % 1029,7 hPa 0,0 l/m 0 min 0 min 28 W/m 16,1 km/h (3 Bft) 97,87 %
30.12.2019 15:20 6,8 C 6,1 C 5,6 C 68 % 1029,6 hPa 0,0 l/m 0 min 0 min 28 W/m 16,1 km/h (3 Bft) 97,87 %
30.12.2019 15:22 6,8 C 6,1 C 5,0 C 68 % 1029,6 hPa 0,0 l/m 0 min 0 min 28 W/m 12,9 km/h (3 Bft) 95,74 %
30.12.2019 15:24 6,8 C 6,1 C 5,0 C 68 % 1029,7 hPa 0,0 l/m 0 min 0 min 26 W/m 12,9 km/h (3 Bft) 97,83 %
30.12.2019 15:26 6,8 C 6,1 C 5,6 C 68 % 1029,6 hPa 0,0 l/m 0 min 0 min 26 W/m 16,1 km/h (3 Bft) 97,87 %
30.12.2019 15:28 6,8 C 6,1 C 5,0 C 68 % 1029,6 hPa 0,0 l/m 0 min 0 min 26 W/m 19,3 km/h (3 Bft) 97,87 %
30.12.2019 15:30 6,8 C 6,1 C 5,0 C 68 % 1029,6 hPa 0,0 l/m 0 min 0 min 26 W/m 12,9 km/h (3 Bft) 97,87 %
30.12.2019 15:32 6,8 C 6,1 C 5,0 C 69 % 1029,6 hPa 0,0 l/m 0 min 0 min 25 W/m 12,9 km/h (3 Bft) 95,74 %
30.12.2019 15:34 6,7 C 6,1 C 5,0 C 69 % 1029,6 hPa 0,0 l/m 0 min 0 min 25 W/m 12,9 km/h (3 Bft) 97,87 %
30.12.2019 15:36 6,7 C 6,1 C 5,0 C 69 % 1029,7 hPa 0,0 l/m 0 min 0 min 25 W/m 3,2 km/h (1 Bft) 97,83 %
30.12.2019 15:38 6,7 C 6,1 C 5,0 C 69 % 1029,7 hPa 0,0 l/m 0 min 0 min 23 W/m 3,2 km/h (1 Bft) 97,87 %
30.12.2019 15:40 6,7 C 6,1 C 5,0 C 69 % 1029,7 hPa 0,0 l/m 0 min 0 min 23 W/m 3,2 km/h (1 Bft) 97,87 %
30.12.2019 15:42 6,7 C 6,1 C 4,4 C 69 % 1029,7 hPa 0,0 l/m 0 min 0 min 23 W/m 3,2 km/h (1 Bft) 97,87 %
30.12.2019 15:44 6,7 C 6,1 C 4,4 C 69 % 1029,7 hPa 0,0 l/m 0 min 0 min 22 W/m 3,2 km/h (1 Bft) 97,87 %
30.12.2019 15:46 6,7 C 5,6 C 4,4 C 69 % 1029,7 hPa 0,0 l/m 0 min 0 min 21 W/m 3,2 km/h (1 Bft) 97,87 %
30.12.2019 15:48 6,7 C 5,6 C 4,4 C 70 % 1029,8 hPa 0,0 l/m 0 min 0 min 21 W/m 3,2 km/h (1 Bft) 95,65 %
30.12.2019 15:50 6,7 C 5,6 C 4,4 C 70 % 1029,8 hPa 0,0 l/m 0 min 0 min 20 W/m 3,2 km/h (1 Bft) 97,87 %
30.12.2019 15:52 6,6 C 5,6 C 5,0 C 70 % 1029,8 hPa 0,0 l/m 0 min 0 min 19 W/m 3,2 km/h (1 Bft) 97,87 %
30.12.2019 15:54 6,6 C 5,6 C 5,0 C 70 % 1029,8 hPa 0,0 l/m 0 min 0 min 19 W/m 3,2 km/h (1 Bft) 97,87 %
30.12.2019 15:56 6,6 C 5,6 C 5,0 C 70 % 1029,8 hPa 0,0 l/m 0 min 0 min 18 W/m 3,2 km/h (1 Bft) 97,87 %
30.12.2019 15:58 6,6 C 5,6 C 5,0 C 70 % 1029,7 hPa 0,0 l/m 0 min 0 min 18 W/m 3,2 km/h (1 Bft) 97,83 %
30.12.2019 16:00 6,6 C 5,6 C 5,0 C 70 % 1029,8 hPa 0,0 l/m 0 min 0 min 17 W/m 3,2 km/h (1 Bft) 95,74 %
30.12.2019 16:02 6,5 C 5,6 C 5,0 C 70 % 1029,8 hPa 0,0 l/m 0 min 0 min 16 W/m 3,2 km/h (1 Bft) 93,62 %
30.12.2019 16:04 6,5 C 5,6 C 5,0 C 70 % 1029,8 hPa 0,0 l/m 0 min 0 min 16 W/m 3,2 km/h (1 Bft) 97,87 %
30.12.2019 16:06 6,5 C 5,6 C 4,4 C 70 % 1029,8 hPa 0,0 l/m 0 min 0 min 14 W/m 3,2 km/h (1 Bft) 97,87 %
30.12.2019 16:08 6,5 C 5,6 C 4,4 C 71 % 1029,7 hPa 0,0 l/m 0 min 0 min 14 W/m 3,2 km/h (1 Bft) 97,87 %
30.12.2019 16:10 6,5 C 5,6 C 4,4 C 71 % 1029,7 hPa 0,0 l/m 0 min 0 min 13 W/m 3,2 km/h (1 Bft) 100,00 %
30.12.2019 16:12 6,4 C 5,6 C 4,4 C 71 % 1029,7 hPa 0,0 l/m 0 min 0 min 12 W/m 3,2 km/h (1 Bft) 100,00 %
30.12.2019 16:14 6,4 C 5,6 C 4,4 C 71 % 1029,7 hPa 0,0 l/m 0 min 0 min 12 W/m 3,2 km/h (1 Bft) 97,87 %
30.12.2019 16:16 6,4 C 5,6 C 3,9 C 71 % 1029,8 hPa 0,0 l/m 0 min 0 min 11 W/m 0,0 km/h (0 Bft) 100,00 %
30.12.2019 16:18 6,4 C 5,0 C 3,9 C 71 % 1029,7 hPa 0,0 l/m 0 min 0 min 11 W/m 3,2 km/h (1 Bft) 97,87 %
30.12.2019 16:20 6,3 C 5,0 C 3,3 C 71 % 1029,7 hPa 0,0 l/m 0 min 0 min 11 W/m 3,2 km/h (1 Bft) 97,87 %
30.12.2019 16:22 6,3 C 5,0 C 3,3 C 71 % 1029,7 hPa 0,0 l/m 0 min 0 min 9 W/m 3,2 km/h (1 Bft) 97,83 %
30.12.2019 16:24 6,3 C 5,0 C 3,3 C 71 % 1029,7 hPa 0,0 l/m 0 min 0 min 9 W/m 3,2 km/h (1 Bft) 95,74 %
30.12.2019 16:26 6,2 C 5,0 C 3,3 C 71 % 1029,7 hPa 0,0 l/m 0 min 0 min 8 W/m 3,2 km/h (1 Bft) 97,87 %
30.12.2019 16:28 6,2 C 5,0 C 3,3 C 71 % 1029,7 hPa 0,0 l/m 0 min 0 min 7 W/m 3,2 km/h (1 Bft) 95,74 %
30.12.2019 16:30 6,2 C 5,0 C 3,3 C 72 % 1029,7 hPa 0,0 l/m 0 min 0 min 7 W/m 3,2 km/h (1 Bft) 97,87 %
30.12.2019 16:32 6,1 C 5,0 C 3,3 C 72 % 1029,8 hPa 0,0 l/m 0 min 0 min 7 W/m 3,2 km/h (1 Bft) 97,83 %
30.12.2019 16:34 6,1 C 4,4 C 2,8 C 72 % 1029,8 hPa 0,0 l/m 0 min 0 min 5 W/m 0,0 km/h (0 Bft) 95,74 %
30.12.2019 16:36 6,1 C 4,4 C 2,8 C 72 % 1029,9 hPa 0,0 l/m 0 min 0 min 5 W/m 6,4 km/h (2 Bft) 97,87 %
30.12.2019 16:38 6,0 C 4,4 C 2,8 C 72 % 1029,8 hPa 0,0 l/m 0 min 0 min 5 W/m 3,2 km/h (1 Bft) 97,87 %
30.12.2019 16:40 6,0 C 5,0 C 2,8 C 72 % 1029,8 hPa 0,0 l/m 0 min 0 min 2 W/m 3,2 km/h (1 Bft) 95,74 %
30.12.2019 16:42 5,9 C 5,0 C 3,3 C 72 % 1029,8 hPa 0,0 l/m 0 min 0 min 0 W/m 3,2 km/h (1 Bft) 95,74 %
30.12.2019 16:44 5,9 C 4,4 C 3,3 C 72 % 1029,8 hPa 0,0 l/m 0 min 0 min 0 W/m 3,2 km/h (1 Bft) 65,96 %
30.12.2019 16:46 5,8 C 4,4 C 3,3 C 72 % 1029,8 hPa 0,0 l/m 0 min 0 min 0 W/m 3,2 km/h (1 Bft) 85,37 %
30.12.2019 16:48 5,8 C 4,4 C 2,8 C 72 % 1029,8 hPa 0,0 l/m 0 min 0 min 0 W/m 3,2 km/h (1 Bft) 93,62 %
30.12.2019 16:50 5,8 C 4,4 C 2,2 C 72 % 1029,8 hPa 0,0 l/m 0 min 0 min 0 W/m 0,0 km/h (0 Bft) 97,87 %
30.12.2019 16:52 5,7 C 3,9 C 2,2 C 72 % 1029,8 hPa 0,0 l/m 0 min 0 min 0 W/m 0,0 km/h (0 Bft) 97,87 %
30.12.2019 16:54 5,7 C 3,3 C 1,7 C 72 % 1029,9 hPa 0,0 l/m 0 min 0 min 0 W/m 0,0 km/h (0 Bft) 97,87 %
30.12.2019 16:56 5,7 C 3,3 C 1,1 C 72 % 1029,8 hPa 0,0 l/m 0 min 0 min 0 W/m 0,0 km/h (0 Bft) 97,83 %
30.12.2019 16:58 5,6 C 3,3 C 1,1 C 72 % 1029,8 hPa 0,0 l/m 0 min 0 min 0 W/m 0,0 km/h (0 Bft) 97,87 %
30.12.2019 17:00 5,6 C 3,3 C 1,1 C 72 % 1029,8 hPa 0,0 l/m 0 min 0 min 0 W/m 0,0 km/h (0 Bft) 97,87 %
30.12.2019 17:02 5,5 C 3,9 C 1,1 C 73 % 1029,8 hPa 0,0 l/m 0 min 0 min 0 W/m 3,2 km/h (1 Bft) 97,87 %
30.12.2019 17:04 5,4 C 3,9 C 1,1 C 73 % 1029,8 hPa 0,0 l/m 0 min 0 min 0 W/m 3,2 km/h (1 Bft) 95,74 %
30.12.2019 17:06 5,4 C 3,9 C 1,7 C 73 % 1029,7 hPa 0,0 l/m 0 min 0 min 0 W/m 6,4 km/h (2 Bft) 97,87 %
30.12.2019 17:08 5,3 C 3,9 C 1,7 C 73 % 1029,7 hPa 0,0 l/m 0 min 0 min 0 W/m 6,4 km/h (2 Bft) 97,83 %
30.12.2019 17:10 5,2 C 3,9 C 2,2 C 73 % 1029,7 hPa 0,0 l/m 0 min 0 min 0 W/m 6,4 km/h (2 Bft) 97,87 %
30.12.2019 17:12 5,2 C 3,9 C 2,8 C 73 % 1029,7 hPa 0,0 l/m 0 min 0 min 0 W/m 12,9 km/h (3 Bft) 95,74 %
30.12.2019 17:14 5,1 C 3,9 C 2,8 C 74 % 1029,7 hPa 0,0 l/m 0 min 0 min 0 W/m 12,9 km/h (3 Bft) 97,87 %
30.12.2019 17:16 5,1 C 3,9 C 2,8 C 74 % 1029,6 hPa 0,0 l/m 0 min 0 min 0 W/m 12,9 km/h (3 Bft) 97,87 %
30.12.2019 17:18 5,1 C 3,9 C 2,8 C 74 % 1029,6 hPa 0,0 l/m 0 min 0 min 0 W/m 6,4 km/h (2 Bft) 97,87 %
30.12.2019 17:20 5,0 C 3,9 C 2,8 C 74 % 1029,6 hPa 0,0 l/m 0 min 0 min 0 W/m 6,4 km/h (2 Bft) 97,83 %
30.12.2019 17:22 4,9 C 3,9 C 2,8 C 74 % 1029,6 hPa 0,0 l/m 0 min 0 min 0 W/m 12,9 km/h (3 Bft) 95,74 %
30.12.2019 17:24 4,9 C 3,9 C 2,8 C 74 % 1029,5 hPa 0,0 l/m 0 min 0 min 0 W/m 16,1 km/h (3 Bft) 97,87 %
30.12.2019 17:26 4,9 C 3,9 C 2,8 C 74 % 1029,5 hPa 0,0 l/m 0 min 0 min 0 W/m 12,9 km/h (3 Bft) 97,87 %
30.12.2019 17:28 4,9 C 3,9 C 3,3 C 74 % 1029,5 hPa 0,0 l/m 0 min 0 min 0 W/m 6,4 km/h (2 Bft) 97,87 %
30.12.2019 17:30 4,8 C 3,9 C 2,8 C 74 % 1029,5 hPa 0,0 l/m 0 min 0 min 0 W/m 12,9 km/h (3 Bft) 95,65 %
30.12.2019 17:32 4,8 C 3,9 C 3,3 C 74 % 1029,5 hPa 0,0 l/m 0 min 0 min 0 W/m 16,1 km/h (3 Bft) 97,87 %
30.12.2019 17:34 4,8 C 3,9 C 3,3 C 74 % 1029,3 hPa 0,0 l/m 0 min 0 min 0 W/m 12,9 km/h (3 Bft) 97,87 %
30.12.2019 17:36 4,8 C 3,9 C 3,3 C 74 % 1029,3 hPa 0,0 l/m 0 min 0 min 0 W/m 16,1 km/h (3 Bft) 97,87 %
30.12.2019 17:38 4,8 C 3,9 C 3,3 C 73 % 1029,3 hPa 0,0 l/m 0 min 0 min 0 W/m 12,9 km/h (3 Bft) 97,87 %
30.12.2019 17:40 4,8 C 3,9 C 3,3 C 73 % 1029,4 hPa 0,0 l/m 0 min 0 min 0 W/m 12,9 km/h (3 Bft) 95,74 %
30.12.2019 17:42 4,8 C 3,9 C 3,3 C 73 % 1029,3 hPa 0,0 l/m 0 min 0 min 0 W/m 12,9 km/h (3 Bft) 100,00 %
30.12.2019 17:44 4,8 C 3,9 C 3,3 C 73 % 1029,3 hPa 0,0 l/m 0 min 0 min 0 W/m 16,1 km/h (3 Bft) 100,00 %
30.12.2019 17:46 4,8 C 3,9 C 3,3 C 73 % 1029,3 hPa 0,0 l/m 0 min 0 min 0 W/m 16,1 km/h (3 Bft) 100,00 %
30.12.2019 17:48 4,8 C 3,9 C 3,3 C 73 % 1029,4 hPa 0,0 l/m 0 min 0 min 0 W/m 6,4 km/h (2 Bft) 100,00 %
30.12.2019 17:50 4,8 C 3,9 C 3,3 C 73 % 1029,3 hPa 0,0 l/m 0 min 0 min 0 W/m 12,9 km/h (3 Bft) 97,87 %
30.12.2019 17:52 4,8 C 3,9 C 3,3 C 72 % 1029,2 hPa 0,0 l/m 0 min 0 min 0 W/m 12,9 km/h (3 Bft) 100,00 %
30.12.2019 17:54 4,7 C 3,9 C 3,3 C 72 % 1029,2 hPa 0,0 l/m 0 min 0 min 0 W/m 6,4 km/h (2 Bft) 97,83 %
30.12.2019 17:56 4,7 C 3,9 C 2,8 C 72 % 1029,2 hPa 0,0 l/m 0 min 0 min 0 W/m 6,4 km/h (2 Bft) 97,87 %
30.12.2019 17:58 4,7 C 3,9 C 2,8 C 72 % 1029,2 hPa 0,0 l/m 0 min 0 min 0 W/m 12,9 km/h (3 Bft) 100,00 %
30.12.2019 18:00 4,7 C 3,9 C 2,8 C 72 % 1029,1 hPa 0,0 l/m 0 min 0 min 0 W/m 12,9 km/h (3 Bft) 100,00 %
30.12.2019 18:02 4,7 C 3,9 C 2,8 C 72 % 1029,1 hPa 0,0 l/m 0 min 0 min 0 W/m 6,4 km/h (2 Bft) 100,00 %
30.12.2019 18:04 4,7 C 3,9 C 2,8 C 72 % 1029,1 hPa 0,0 l/m 0 min 0 min 0 W/m 12,9 km/h (3 Bft) 97,87 %
30.12.2019 18:08 4,6 C 3,9 C 2,8 C 72 % 1029,1 hPa 0,0 l/m 0 min 0 min 0 W/m 12,9 km/h (3 Bft) 98,92 %
30.12.2019 18:10 4,6 C 3,9 C 2,8 C 72 % 1029,1 hPa 0,0 l/m 0 min 0 min 0 W/m 6,4 km/h (2 Bft) 97,87 %
30.12.2019 18:12 4,6 C 3,3 C 2,8 C 72 % 1029,0 hPa 0,0 l/m 0 min 0 min 0 W/m 6,4 km/h (2 Bft) 100,00 %
30.12.2019 18:14 4,6 C 3,3 C 2,8 C 72 % 1029,0 hPa 0,0 l/m 0 min 0 min 0 W/m 16,1 km/h (3 Bft) 97,87 %
30.12.2019 18:16 4,5 C 3,3 C 2,8 C 72 % 1028,9 hPa 0,0 l/m 0 min 0 min 0 W/m 16,1 km/h (3 Bft) 95,74 %
30.12.2019 18:18 4,5 C 3,9 C 2,8 C 71 % 1028,8 hPa 0,0 l/m 0 min 0 min 0 W/m 19,3 km/h (3 Bft) 97,83 %
30.12.2019 18:20 4,4 C 3,9 C 2,8 C 71 % 1028,8 hPa 0,0 l/m 0 min 0 min 0 W/m 12,9 km/h (3 Bft) 97,87 %
30.12.2019 18:22 4,4 C 3,9 C 2,8 C 71 % 1028,8 hPa 0,0 l/m 0 min 0 min 0 W/m 12,9 km/h (3 Bft) 97,87 %
30.12.2019 18:24 4,4 C 3,9 C 2,8 C 71 % 1028,8 hPa 0,0 l/m 0 min 0 min 0 W/m 12,9 km/h (3 Bft) 97,87 %
30.12.2019 18:26 4,4 C 3,3 C 2,8 C 71 % 1028,9 hPa 0,0 l/m 0 min 0 min 0 W/m 6,4 km/h (2 Bft) 95,74 %
30.12.2019 18:28 4,4 C 3,3 C 2,8 C 71 % 1028,9 hPa 0,0 l/m 0 min 0 min 0 W/m 6,4 km/h (2 Bft) 97,83 %
30.12.2019 18:30 4,3 C 3,3 C 2,8 C 71 % 1028,9 hPa 0,0 l/m 0 min 0 min 0 W/m 6,4 km/h (2 Bft) 97,87 %
30.12.2019 18:32 4,3 C 3,3 C 2,8 C 71 % 1028,9 hPa 0,0 l/m 0 min 0 min 0 W/m 12,9 km/h (3 Bft) 97,87 %
30.12.2019 18:34 4,3 C 3,3 C 2,8 C 70 % 1028,9 hPa 0,0 l/m 0 min 0 min 0 W/m 6,4 km/h (2 Bft) 97,87 %
30.12.2019 18:36 4,3 C 3,3 C 2,8 C 70 % 1029,0 hPa 0,0 l/m 0 min 0 min 0 W/m 6,4 km/h (2 Bft) 97,87 %
30.12.2019 18:38 4,3 C 3,3 C 2,2 C 70 % 1029,0 hPa 0,0 l/m 0 min 0 min 0 W/m 3,2 km/h (1 Bft) 97,87 %
30.12.2019 18:40 4,3 C 3,3 C 2,2 C 70 % 1029,1 hPa 0,0 l/m 0 min 0 min 0 W/m 3,2 km/h (1 Bft) 97,83 %
30.12.2019 18:42 4,2 C 3,3 C 2,2 C 70 % 1029,0 hPa 0,0 l/m 0 min 0 min 0 W/m 0,0 km/h (0 Bft) 97,87 %
30.12.2019 18:44 4,2 C 3,3 C 1,7 C 70 % 1029,0 hPa 0,0 l/m 0 min 0 min 0 W/m 3,2 km/h (1 Bft) 51,22 %
30.12.2019 18:46 4,2 C 3,3 C 1,7 C 70 % 1029,0 hPa 0,0 l/m 0 min 0 min 0 W/m 3,2 km/h (1 Bft) 97,78 %
30.12.2019 18:48 4,2 C 2,8 C 1,1 C 70 % 1029,0 hPa 0,0 l/m 0 min 0 min 0 W/m 0,0 km/h (0 Bft) 95,74 %
30.12.2019 18:50 4,2 C 2,8 C 1,1 C 70 % 1029,0 hPa 0,0 l/m 0 min 0 min 0 W/m 0,0 km/h (0 Bft) 97,87 %
30.12.2019 18:52 4,1 C 2,8 C 0,6 C 71 % 1029,0 hPa 0,0 l/m 0 min 0 min 0 W/m 0,0 km/h (0 Bft) 97,83 %
30.12.2019 18:54 4,1 C 2,8 C 0,6 C 71 % 1029,0 hPa 0,0 l/m 0 min 0 min 0 W/m 0,0 km/h (0 Bft) 97,87 %
30.12.2019 18:56 4,1 C 2,8 C 0,6 C 71 % 1028,9 hPa 0,0 l/m 0 min 0 min 0 W/m 3,2 km/h (1 Bft) 95,74 %
30.12.2019 18:58 4,0 C 2,8 C 1,1 C 71 % 1028,9 hPa 0,0 l/m 0 min 0 min 0 W/m 3,2 km/h (1 Bft) 100,00 %
30.12.2019 19:00 4,0 C 2,8 C 1,1 C 70 % 1028,9 hPa 0,0 l/m 0 min 0 min 0 W/m 3,2 km/h (1 Bft) 100,00 %
30.12.2019 19:02 3,9 C 2,8 C 1,1 C 71 % 1028,9 hPa 0,0 l/m 0 min 0 min 0 W/m 3,2 km/h (1 Bft) 93,62 %
30.12.2019 19:04 3,9 C 2,8 C 1,7 C 71 % 1028,9 hPa 0,0 l/m 0 min 0 min 0 W/m 3,2 km/h (1 Bft) 97,83 %
30.12.2019 19:06 3,8 C 2,8 C 1,7 C 71 % 1028,9 hPa 0,0 l/m 0 min 0 min 0 W/m 0,0 km/h (0 Bft) 100,00 %
30.12.2019 19:08 3,8 C 2,8 C 1,7 C 71 % 1028,8 hPa 0,0 l/m 0 min 0 min 0 W/m 3,2 km/h (1 Bft) 100,00 %
30.12.2019 19:10 3,8 C 2,8 C 1,7 C 71 % 1028,8 hPa 0,0 l/m 0 min 0 min 0 W/m 3,2 km/h (1 Bft) 100,00 %
30.12.2019 19:12 3,8 C 2,8 C 1,7 C 70 % 1028,8 hPa 0,0 l/m 0 min 0 min 0 W/m 6,4 km/h (2 Bft) 97,87 %
30.12.2019 19:14 3,7 C 3,3 C 1,7 C 70 % 1028,8 hPa 0,0 l/m 0 min 0 min 0 W/m 3,2 km/h (1 Bft) 97,87 %
30.12.2019 19:16 3,7 C 3,3 C 1,7 C 70 % 1028,7 hPa 0,0 l/m 0 min 0 min 0 W/m 12,9 km/h (3 Bft) 97,83 %
30.12.2019 19:18 3,7 C 3,3 C 2,2 C 70 % 1028,7 hPa 0,0 l/m 0 min 0 min 0 W/m 6,4 km/h (2 Bft) 97,87 %
30.12.2019 19:20 3,7 C 3,3 C 2,2 C 70 % 1028,7 hPa 0,0 l/m 0 min 0 min 0 W/m 12,9 km/h (3 Bft) 97,87 %
30.12.2019 19:22 3,7 C 3,3 C 2,2 C 70 % 1028,6 hPa 0,0 l/m 0 min 0 min 0 W/m 12,9 km/h (3 Bft) 97,87 %
30.12.2019 19:24 3,7 C 3,3 C 2,2 C 69 % 1028,7 hPa 0,0 l/m 0 min 0 min 0 W/m 6,4 km/h (2 Bft) 97,87 %
30.12.2019 19:26 3,7 C 3,3 C 2,2 C 70 % 1028,8 hPa 0,0 l/m 0 min 0 min 0 W/m 6,4 km/h (2 Bft) 97,83 %
30.12.2019 19:28 3,7 C 3,3 C 2,2 C 69 % 1028,8 hPa 0,0 l/m 0 min 0 min 0 W/m 3,2 km/h (1 Bft) 97,87 %
30.12.2019 19:30 3,7 C 3,3 C 2,2 C 70 % 1028,8 hPa 0,0 l/m 0 min 0 min 0 W/m 3,2 km/h (1 Bft) 97,87 %
30.12.2019 19:32 3,7 C 3,3 C 2,2 C 70 % 1028,8 hPa 0,0 l/m 0 min 0 min 0 W/m 6,4 km/h (2 Bft) 95,74 %
30.12.2019 19:34 3,7 C 3,3 C 2,2 C 70 % 1028,8 hPa 0,0 l/m 0 min 0 min 0 W/m 12,9 km/h (3 Bft) 95,74 %
30.12.2019 19:36 3,7 C 2,8 C 2,2 C 70 % 1028,8 hPa 0,0 l/m 0 min 0 min 0 W/m 3,2 km/h (1 Bft) 97,87 %
30.12.2019 19:38 3,7 C 2,8 C 1,7 C 70 % 1028,9 hPa 0,0 l/m 0 min 0 min 0 W/m 3,2 km/h (1 Bft) 97,83 %
30.12.2019 19:40 3,7 C 2,8 C 1,7 C 70 % 1028,8 hPa 0,0 l/m 0 min 0 min 0 W/m 3,2 km/h (1 Bft) 97,87 %
30.12.2019 19:42 3,7 C 2,8 C 1,7 C 70 % 1028,8 hPa 0,0 l/m 0 min 0 min 0 W/m 3,2 km/h (1 Bft) 97,87 %
30.12.2019 19:44 3,7 C 2,8 C 1,7 C 70 % 1028,7 hPa 0,0 l/m 0 min 0 min 0 W/m 3,2 km/h (1 Bft) 95,74 %
30.12.2019 19:46 3,7 C 2,8 C 1,7 C 70 % 1028,8 hPa 0,0 l/m 0 min 0 min 0 W/m 6,4 km/h (2 Bft) 95,74 %
30.12.2019 19:48 3,7 C 2,8 C 1,7 C 70 % 1028,7 hPa 0,0 l/m 0 min 0 min 0 W/m 12,9 km/h (3 Bft) 97,87 %
30.12.2019 19:50 3,7 C 2,8 C 1,7 C 70 % 1028,7 hPa 0,0 l/m 0 min 0 min 0 W/m 6,4 km/h (2 Bft) 93,48 %
30.12.2019 19:52 3,6 C 2,8 C 1,7 C 70 % 1028,7 hPa 0,0 l/m 0 min 0 min 0 W/m 12,9 km/h (3 Bft) 95,74 %
30.12.2019 19:54 3,6 C 2,8 C 1,7 C 70 % 1028,7 hPa 0,0 l/m 0 min 0 min 0 W/m 0,0 km/h (0 Bft) 95,74 %
30.12.2019 19:56 3,6 C 2,8 C 1,1 C 70 % 1028,7 hPa 0,0 l/m 0 min 0 min 0 W/m 0,0 km/h (0 Bft) 95,74 %
30.12.2019 19:58 3,6 C 2,2 C 1,1 C 70 % 1028,8 hPa 0,0 l/m 0 min 0 min 0 W/m 0,0 km/h (0 Bft) 92,00 %
30.12.2019 20:00 3,6 C 1,7 C 0,6 C 70 % 1028,8 hPa 0,0 l/m 0 min 0 min 0 W/m 0,0 km/h (0 Bft) 95,74 %
30.12.2019 20:02 3,6 C 1,7 C 0,6 C 70 % 1028,8 hPa 0,0 l/m 0 min 0 min 0 W/m 0,0 km/h (0 Bft) 93,88 %
30.12.2019 20:04 3,6 C 1,1 C 0,0 C 71 % 1028,8 hPa 0,0 l/m 0 min 0 min 0 W/m 0,0 km/h (0 Bft) 92,31 %
30.12.2019 20:06 3,5 C 1,1 C 0,0 C 71 % 1028,8 hPa 0,0 l/m 0 min 0 min 0 W/m 0,0 km/h (0 Bft) 96,55 %
30.12.2019 20:08 3,4 C 1,1 C 0,0 C 71 % 1028,8 hPa 0,0 l/m 0 min 0 min 0 W/m 3,2 km/h (1 Bft) 94,29 %
30.12.2019 20:10 3,4 C 1,7 C 0,0 C 71 % 1028,9 hPa 0,0 l/m 0 min 0 min 0 W/m 0,0 km/h (0 Bft) 95,74 %
30.12.2019 20:12 3,3 C 1,1 C -0,6 C 71 % 1028,9 hPa 0,0 l/m 0 min 0 min 0 W/m 0,0 km/h (0 Bft) 95,74 %
30.12.2019 20:14 3,3 C 1,1 C -0,6 C 71 % 1029,0 hPa 0,0 l/m 0 min 0 min 0 W/m 3,2 km/h (1 Bft) 95,74 %
30.12.2019 20:16 3,3 C 1,1 C -0,6 C 71 % 1029,0 hPa 0,0 l/m 0 min 0 min 0 W/m 0,0 km/h (0 Bft) 93,62 %
30.12.2019 20:18 3,2 C 1,1 C -0,6 C 71 % 1029,0 hPa 0,0 l/m 0 min 0 min 0 W/m 0,0 km/h (0 Bft) 92,00 %
30.12.2019 20:20 3,1 C 1,1 C -0,6 C 71 % 1029,0 hPa 0,0 l/m 0 min 0 min 0 W/m 0,0 km/h (0 Bft) 95,92 %
30.12.2019 20:22 3,1 C 1,7 C -0,6 C 71 % 1029,0 hPa 0,0 l/m 0 min 0 min 0 W/m 3,2 km/h (1 Bft) 97,87 %
30.12.2019 20:24 3,0 C 1,7 C 0,0 C 72 % 1028,9 hPa 0,0 l/m 0 min 0 min 0 W/m 6,4 km/h (2 Bft) 97,62 %
30.12.2019 20:26 2,9 C 2,2 C 0,6 C 72 % 1028,8 hPa 0,0 l/m 0 min 0 min 0 W/m 12,9 km/h (3 Bft) 91,84 %
30.12.2019 20:28 2,9 C 2,2 C 1,1 C 73 % 1028,8 hPa 0,0 l/m 0 min 0 min 0 W/m 6,4 km/h (2 Bft) 98,00 %
30.12.2019 20:30 2,9 C 2,2 C 1,1 C 73 % 1028,8 hPa 0,0 l/m 0 min 0 min 0 W/m 6,4 km/h (2 Bft) 96,00 %
30.12.2019 20:32 2,8 C 2,2 C 1,1 C 73 % 1028,9 hPa 0,0 l/m 0 min 0 min 0 W/m 12,9 km/h (3 Bft) 95,74 %
30.12.2019 20:34 2,8 C 2,2 C 1,1 C 74 % 1028,8 hPa 0,0 l/m 0 min 0 min 0 W/m 16,1 km/h (3 Bft) 94,59 %
30.12.2019 20:36 2,8 C 2,2 C 1,7 C 74 % 1028,8 hPa 0,0 l/m 0 min 0 min 0 W/m 16,1 km/h (3 Bft) 91,49 %
30.12.2019 20:38 2,8 C 2,2 C 1,7 C 74 % 1028,8 hPa 0,0 l/m 0 min 0 min 0 W/m 12,9 km/h (3 Bft) 96,23 %
30.12.2019 20:40 2,8 C 2,8 C 1,7 C 74 % 1028,9 hPa 0,0 l/m 0 min 0 min 0 W/m 3,2 km/h (1 Bft) 96,00 %
30.12.2019 20:42 2,8 C 2,8 C 1,7 C 73 % 1028,8 hPa 0,0 l/m 0 min 0 min 0 W/m 3,2 km/h (1 Bft) 97,37 %
30.12.2019 20:44 2,8 C 2,8 C 1,7 C 73 % 1028,8 hPa 0,0 l/m 0 min 0 min 0 W/m 3,2 km/h (1 Bft) 97,87 %
30.12.2019 20:46 2,8 C 2,8 C 1,7 C 73 % 1028,9 hPa 0,0 l/m 0 min 0 min 0 W/m 3,2 km/h (1 Bft) 98,11 %
30.12.2019 20:48 2,9 C 2,8 C 1,7 C 73 % 1028,8 hPa 0,0 l/m 0 min 0 min 0 W/m 3,2 km/h (1 Bft) 95,65 %
30.12.2019 20:50 2,9 C 2,8 C 1,7 C 73 % 1028,9 hPa 0,0 l/m 0 min 0 min 0 W/m 3,2 km/h (1 Bft) 98,00 %
30.12.2019 20:52 2,9 C 2,8 C 1,7 C 73 % 1028,9 hPa 0,0 l/m 0 min 0 min 0 W/m 6,4 km/h (2 Bft) 97,37 %
30.12.2019 20:54 2,9 C 2,8 C 1,7 C 73 % 1028,9 hPa 0,0 l/m 0 min 0 min 0 W/m 3,2 km/h (1 Bft) 97,87 %
30.12.2019 20:56 2,9 C 2,8 C 1,7 C 73 % 1029,0 hPa 0,0 l/m 0 min 0 min 0 W/m 6,4 km/h (2 Bft) 95,74 %
30.12.2019 20:58 2,9 C 2,8 C 1,7 C 72 % 1029,0 hPa 0,0 l/m 0 min 0 min 0 W/m 0,0 km/h (0 Bft) 93,62 %
30.12.2019 21:00 2,9 C 2,8 C 1,7 C 72 % 1029,0 hPa 0,0 l/m 0 min 0 min 0 W/m 3,2 km/h (1 Bft) 98,11 %
30.12.2019 21:02 2,9 C 2,8 C 1,7 C 72 % 1028,9 hPa 0,0 l/m 0 min 0 min 0 W/m 3,2 km/h (1 Bft) 97,96 %
30.12.2019 21:04 2,9 C 2,2 C 1,7 C 72 % 1028,9 hPa 0,0 l/m 0 min 0 min 0 W/m 3,2 km/h (1 Bft) 97,37 %
30.12.2019 21:06 2,9 C 2,8 C 1,7 C 72 % 1028,9 hPa 0,0 l/m 0 min 0 min 0 W/m 6,4 km/h (2 Bft) 97,87 %
30.12.2019 21:08 3,0 C 2,8 C 1,7 C 72 % 1029,0 hPa 0,0 l/m 0 min 0 min 0 W/m 12,9 km/h (3 Bft) 97,87 %
30.12.2019 21:10 3,0 C 2,8 C 1,7 C 72 % 1028,8 hPa 0,0 l/m 0 min 0 min 0 W/m 6,4 km/h (2 Bft) 100,00 %
30.12.2019 21:12 3,0 C 2,8 C 1,7 C 72 % 1028,9 hPa 0,0 l/m 0 min 0 min 0 W/m 6,4 km/h (2 Bft) 100,00 %
30.12.2019 21:14 3,0 C 2,8 C 1,7 C 72 % 1028,9 hPa 0,0 l/m 0 min 0 min 0 W/m 3,2 km/h (1 Bft) 100,00 %
30.12.2019 21:16 3,0 C 2,8 C 1,7 C 71 % 1028,9 hPa 0,0 l/m 0 min 0 min 0 W/m 3,2 km/h (1 Bft) 100,00 %
30.12.2019 21:18 3,0 C 2,8 C 1,7 C 71 % 1028,9 hPa 0,0 l/m 0 min 0 min 0 W/m 6,4 km/h (2 Bft) 100,00 %
30.12.2019 21:20 3,0 C 2,8 C 1,7 C 71 % 1028,9 hPa 0,0 l/m 0 min 0 min 0 W/m 6,4 km/h (2 Bft) 98,00 %
30.12.2019 21:22 3,0 C 2,8 C 1,7 C 71 % 1028,9 hPa 0,0 l/m 0 min 0 min 0 W/m 0,0 km/h (0 Bft) 100,00 %
30.12.2019 21:24 3,0 C 2,8 C 1,1 C 71 % 1028,9 hPa 0,0 l/m 0 min 0 min 0 W/m 3,2 km/h (1 Bft) 55,56 %
30.12.2019 21:26 3,0 C 2,2 C 1,1 C 71 % 1028,9 hPa 0,0 l/m 0 min 0 min 0 W/m 0,0 km/h (0 Bft) 100,00 %
30.12.2019 21:28 3,0 C 2,2 C 1,1 C 71 % 1028,9 hPa 0,0 l/m 0 min 0 min 0 W/m 3,2 km/h (1 Bft) 100,00 %
30.12.2019 21:30 3,0 C 2,2 C 1,1 C 71 % 1028,9 hPa 0,0 l/m 0 min 0 min 0 W/m 3,2 km/h (1 Bft) 100,00 %
30.12.2019 21:32 3,0 C 2,2 C 1,1 C 71 % 1028,8 hPa 0,0 l/m 0 min 0 min 0 W/m 3,2 km/h (1 Bft) 100,00 %
30.12.2019 21:34 3,0 C 2,8 C 1,1 C 71 % 1028,8 hPa 0,0 l/m 0 min 0 min 0 W/m 3,2 km/h (1 Bft) 100,00 %
30.12.2019 21:36 3,0 C 2,8 C 1,1 C 70 % 1028,8 hPa 0,0 l/m 0 min 0 min 0 W/m 3,2 km/h (1 Bft) 100,00 %
30.12.2019 21:38 3,0 C 2,8 C 1,7 C 70 % 1028,7 hPa 0,0 l/m 0 min 0 min 0 W/m 3,2 km/h (1 Bft) 100,00 %
30.12.2019 21:40 3,0 C 2,8 C 1,7 C 70 % 1028,7 hPa 0,0 l/m 0 min 0 min 0 W/m 6,4 km/h (2 Bft) 100,00 %
30.12.2019 21:42 3,0 C 2,8 C 1,7 C 69 % 1028,7 hPa 0,0 l/m 0 min 0 min 0 W/m 6,4 km/h (2 Bft) 100,00 %
30.12.2019 21:44 3,0 C 2,8 C 1,7 C 69 % 1028,7 hPa 0,0 l/m 0 min 0 min 0 W/m 12,9 km/h (3 Bft) 100,00 %
30.12.2019 21:46 3,1 C 2,8 C 1,7 C 69 % 1028,8 hPa 0,0 l/m 0 min 0 min 0 W/m 3,2 km/h (1 Bft) 100,00 %
30.12.2019 21:48 3,1 C 2,8 C 1,7 C 69 % 1028,9 hPa 0,0 l/m 0 min 0 min 0 W/m 6,4 km/h (2 Bft) 100,00 %
30.12.2019 21:50 3,1 C 2,8 C 1,7 C 69 % 1028,8 hPa 0,0 l/m 0 min 0 min 0 W/m 3,2 km/h (1 Bft) 100,00 %
30.12.2019 21:52 3,1 C 2,8 C 1,7 C 68 % 1028,8 hPa 0,0 l/m 0 min 0 min 0 W/m 3,2 km/h (1 Bft) 100,00 %
30.12.2019 21:54 3,1 C 2,8 C 1,7 C 68 % 1028,8 hPa 0,0 l/m 0 min 0 min 0 W/m 3,2 km/h (1 Bft) 100,00 %
30.12.2019 21:56 3,1 C 2,8 C 1,7 C 68 % 1028,8 hPa 0,0 l/m 0 min 0 min 0 W/m 3,2 km/h (1 Bft) 100,00 %
30.12.2019 21:58 3,1 C 2,8 C 1,7 C 68 % 1028,7 hPa 0,0 l/m 0 min 0 min 0 W/m 3,2 km/h (1 Bft) 100,00 %
30.12.2019 22:00 3,2 C 2,8 C 1,7 C 68 % 1028,6 hPa 0,0 l/m 0 min 0 min 0 W/m 12,9 km/h (3 Bft) 97,87 %
30.12.2019 22:02 3,2 C 2,8 C 1,7 C 68 % 1028,6 hPa 0,0 l/m 0 min 0 min 0 W/m 12,9 km/h (3 Bft) 100,00 %
30.12.2019 22:04 3,2 C 2,8 C 1,7 C 68 % 1028,7 hPa 0,0 l/m 0 min 0 min 0 W/m 16,1 km/h (3 Bft) 100,00 %
30.12.2019 22:06 3,2 C 2,8 C 1,7 C 68 % 1028,8 hPa 0,0 l/m 0 min 0 min 0 W/m 6,4 km/h (2 Bft) 98,00 %
30.12.2019 22:08 3,2 C 2,8 C 1,7 C 68 % 1028,7 hPa 0,0 l/m 0 min 0 min 0 W/m 12,9 km/h (3 Bft) 100,00 %
30.12.2019 22:10 3,2 C 2,8 C 1,7 C 68 % 1028,8 hPa 0,0 l/m 0 min 0 min 0 W/m 12,9 km/h (3 Bft) 100,00 %
30.12.2019 22:12 3,2 C 2,8 C 1,7 C 68 % 1028,8 hPa 0,0 l/m 0 min 0 min 0 W/m 6,4 km/h (2 Bft) 97,87 %
30.12.2019 22:14 3,3 C 2,8 C 1,7 C 68 % 1028,8 hPa 0,0 l/m 0 min 0 min 0 W/m 12,9 km/h (3 Bft) 100,00 %
30.12.2019 22:16 3,3 C 2,8 C 1,7 C 68 % 1028,9 hPa 0,0 l/m 0 min 0 min 0 W/m 6,4 km/h (2 Bft) 94,34 %
30.12.2019 22:18 3,3 C 2,8 C 1,7 C 68 % 1028,9 hPa 0,0 l/m 0 min 0 min 0 W/m 6,4 km/h (2 Bft) 61,70 %
30.12.2019 22:20 3,3 C 2,8 C 1,7 C 68 % 1028,9 hPa 0,0 l/m 0 min 0 min 0 W/m 6,4 km/h (2 Bft) 100,00 %
30.12.2019 22:22 3,3 C 2,8 C 1,7 C 68 % 1028,9 hPa 0,0 l/m 0 min 0 min 0 W/m 6,4 km/h (2 Bft) 100,00 %
30.12.2019 22:24 3,3 C 2,8 C 1,7 C 68 % 1028,9 hPa 0,0 l/m 0 min 0 min 0 W/m 6,4 km/h (2 Bft) 100,00 %
30.12.2019 22:26 3,3 C 2,8 C 1,7 C 68 % 1028,9 hPa 0,0 l/m 0 min 0 min 0 W/m 3,2 km/h (1 Bft) 100,00 %
30.12.2019 22:28 3,3 C 2,8 C 1,7 C 68 % 1028,9 hPa 0,0 l/m 0 min 0 min 0 W/m 6,4 km/h (2 Bft) 100,00 %
30.12.2019 22:30 3,3 C 2,8 C 1,7 C 68 % 1028,9 hPa 0,0 l/m 0 min 0 min 0 W/m 3,2 km/h (1 Bft) 100,00 %
30.12.2019 22:32 3,3 C 2,2 C 1,1 C 68 % 1028,9 hPa 0,0 l/m 0 min 0 min 0 W/m 0,0 km/h (0 Bft) 100,00 %
30.12.2019 22:34 3,3 C 2,2 C 1,1 C 68 % 1028,8 hPa 0,0 l/m 0 min 0 min 0 W/m 6,4 km/h (2 Bft) 100,00 %
30.12.2019 22:36 3,3 C 2,2 C 1,7 C 68 % 1028,8 hPa 0,0 l/m 0 min 0 min 0 W/m 6,4 km/h (2 Bft) 98,00 %
30.12.2019 22:38 3,2 C 2,2 C 1,1 C 68 % 1028,8 hPa 0,0 l/m 0 min 0 min 0 W/m 3,2 km/h (1 Bft) 100,00 %
30.12.2019 22:40 3,2 C 2,2 C 1,1 C 68 % 1029,0 hPa 0,0 l/m 0 min 0 min 0 W/m 0,0 km/h (0 Bft) 100,00 %
30.12.2019 22:42 3,2 C 1,7 C 0,6 C 68 % 1029,1 hPa 0,0 l/m 0 min 0 min 0 W/m 0,0 km/h (0 Bft) 95,74 %
30.12.2019 22:44 3,2 C 1,7 C 0,6 C 68 % 1029,1 hPa 0,0 l/m 0 min 0 min 0 W/m 0,0 km/h (0 Bft) 95,65 %
30.12.2019 22:46 3,2 C 1,7 C 0,6 C 69 % 1029,1 hPa 0,0 l/m 0 min 0 min 0 W/m 0,0 km/h (0 Bft) 98,11 %
30.12.2019 22:48 3,2 C 1,7 C 0,0 C 69 % 1029,2 hPa 0,0 l/m 0 min 0 min 0 W/m 0,0 km/h (0 Bft) 96,00 %
30.12.2019 22:50 3,1 C 1,1 C 0,0 C 69 % 1029,2 hPa 0,0 l/m 0 min 0 min 0 W/m 0,0 km/h (0 Bft) 100,00 %
30.12.2019 22:52 3,1 C 1,1 C 0,0 C 69 % 1029,2 hPa 0,0 l/m 0 min 0 min 0 W/m 0,0 km/h (0 Bft) 93,62 %
30.12.2019 22:54 3,1 C 0,6 C -0,6 C 69 % 1029,2 hPa 0,0 l/m 0 min 0 min 0 W/m 0,0 km/h (0 Bft) 93,62 %
30.12.2019 22:56 3,0 C 0,6 C -0,6 C 69 % 1029,3 hPa 0,0 l/m 0 min 0 min 0 W/m 0,0 km/h (0 Bft) 93,48 %
30.12.2019 22:58 2,9 C 0,6 C -0,6 C 70 % 1029,3 hPa 0,0 l/m 0 min 0 min 0 W/m 0,0 km/h (0 Bft) 96,23 %
30.12.2019 23:00 2,9 C 0,6 C -0,6 C 70 % 1029,3 hPa 0,0 l/m 0 min 0 min 0 W/m 0,0 km/h (0 Bft) 95,74 %
30.12.2019 23:02 2,8 C 0,6 C -0,6 C 70 % 1029,3 hPa 0,0 l/m 0 min 0 min 0 W/m 0,0 km/h (0 Bft) 93,62 %
30.12.2019 23:04 2,8 C 0,6 C -0,6 C 70 % 1029,3 hPa 0,0 l/m 0 min 0 min 0 W/m 0,0 km/h (0 Bft) 94,00 %
30.12.2019 23:06 2,7 C 1,1 C -0,6 C 70 % 1029,3 hPa 0,0 l/m 0 min 0 min 0 W/m 0,0 km/h (0 Bft) 92,11 %
30.12.2019 23:08 2,7 C 1,1 C -0,6 C 71 % 1029,4 hPa 0,0 l/m 0 min 0 min 0 W/m 0,0 km/h (0 Bft) 93,48 %
30.12.2019 23:10 2,6 C 1,1 C -0,6 C 71 % 1029,3 hPa 0,0 l/m 0 min 0 min 0 W/m 0,0 km/h (0 Bft) 90,57 %
30.12.2019 23:12 2,6 C 1,1 C -0,6 C 71 % 1029,4 hPa 0,0 l/m 0 min 0 min 0 W/m 0,0 km/h (0 Bft) 93,62 %
30.12.2019 23:14 2,5 C 0,6 C -0,6 C 71 % 1029,4 hPa 0,0 l/m 0 min 0 min 0 W/m 0,0 km/h (0 Bft) 93,62 %
30.12.2019 23:16 2,5 C 0,6 C -1,1 C 71 % 1029,4 hPa 0,0 l/m 0 min 0 min 0 W/m 0,0 km/h (0 Bft) 94,00 %
30.12.2019 23:18 2,4 C 0,0 C -1,1 C 71 % 1029,4 hPa 0,0 l/m 0 min 0 min 0 W/m 0,0 km/h (0 Bft) 93,48 %
30.12.2019 23:20 2,3 C 0,0 C -1,1 C 72 % 1029,3 hPa 0,0 l/m 0 min 0 min 0 W/m 0,0 km/h (0 Bft) 92,11 %
30.12.2019 23:22 2,3 C 0,0 C -1,1 C 72 % 1029,3 hPa 0,0 l/m 0 min 0 min 0 W/m 0,0 km/h (0 Bft) 93,62 %
30.12.2019 23:24 2,2 C 0,6 C -1,1 C 72 % 1029,3 hPa 0,0 l/m 0 min 0 min 0 W/m 0,0 km/h (0 Bft) 93,62 %
30.12.2019 23:26 2,2 C 0,6 C -1,1 C 72 % 1029,2 hPa 0,0 l/m 0 min 0 min 0 W/m 0,0 km/h (0 Bft) 93,62 %
30.12.2019 23:28 2,1 C 0,0 C -1,7 C 73 % 1029,3 hPa 0,0 l/m 0 min 0 min 0 W/m 0,0 km/h (0 Bft) 92,45 %
30.12.2019 23:30 2,1 C 0,0 C -1,7 C 72 % 1029,3 hPa 0,0 l/m 0 min 0 min 0 W/m 0,0 km/h (0 Bft) 93,62 %
30.12.2019 23:32 2,0 C -0,6 C -1,7 C 73 % 1029,3 hPa 0,0 l/m 0 min 0 min 0 W/m 0,0 km/h (0 Bft) 95,92 %
30.12.2019 23:34 1,9 C -0,6 C -1,7 C 73 % 1029,3 hPa 0,0 l/m 0 min 0 min 0 W/m 0,0 km/h (0 Bft) 97,37 %
30.12.2019 23:36 1,9 C 0,0 C -1,7 C 73 % 1029,3 hPa 0,0 l/m 0 min 0 min 0 W/m 0,0 km/h (0 Bft) 95,74 %
30.12.2019 23:38 1,8 C -0,6 C -1,7 C 73 % 1029,4 hPa 0,0 l/m 0 min 0 min 0 W/m 0,0 km/h (0 Bft) 97,87 %
30.12.2019 23:40 1,8 C -0,6 C -1,7 C 73 % 1029,5 hPa 0,0 l/m 0 min 0 min 0 W/m 0,0 km/h (0 Bft) 96,23 %
30.12.2019 23:42 1,7 C -0,6 C -1,7 C 74 % 1029,4 hPa 0,0 l/m 0 min 0 min 0 W/m 0,0 km/h (0 Bft) 95,92 %
30.12.2019 23:44 1,6 C -1,1 C -1,7 C 74 % 1029,5 hPa 0,0 l/m 0 min 0 min 0 W/m 0,0 km/h (0 Bft) 100,00 %
30.12.2019 23:46 1,6 C -1,1 C -2,2 C 74 % 1029,4 hPa 0,0 l/m 0 min 0 min 0 W/m 0,0 km/h (0 Bft) 95,74 %
30.12.2019 23:48 1,4 C -0,6 C -2,2 C 75 % 1029,3 hPa 0,0 l/m 0 min 0 min 0 W/m 0,0 km/h (0 Bft) 94,34 %
30.12.2019 23:50 1,4 C 0,0 C -1,7 C 75 % 1029,3 hPa 0,0 l/m 0 min 0 min 0 W/m 0,0 km/h (0 Bft) 96,00 %
30.12.2019 23:52 1,4 C 0,0 C -1,7 C 75 % 1029,4 hPa 0,0 l/m 0 min 0 min 0 W/m 0,0 km/h (0 Bft) 97,87 %
30.12.2019 23:54 1,3 C -0,6 C -1,7 C 75 % 1029,3 hPa 0,0 l/m 0 min 0 min 0 W/m 0,0 km/h (0 Bft) 94,59 %
30.12.2019 23:56 1,3 C 0,0 C -1,7 C 75 % 1029,4 hPa 0,0 l/m 0 min 0 min 0 W/m 0,0 km/h (0 Bft) 97,87 %
30.12.2019 23:58 1,2 C -0,6 C -1,7 C 75 % 1029,5 hPa 0,0 l/m 0 min 0 min 0 W/m 0,0 km/h (0 Bft) 98,11 %
_ Min-Zeit 07:18 23:44 23:46 13:28 19:22 - - - - 00:02 00:02
Minimum _ 0,6 C -1,1 C -2,2 C 62 % 1028,6 hPa - - - - 0,0 km/h (0 Bft) 12,50 %
_ Max-Zeit 13:30 13:18 13:16 00:00 00:00 00:00 12:08 00:00 13:20 00:46 00:00
Maximum _ 7,8 C 13,9 C 6,7 C 82 % 1035,3 hPa 0,0 l/m 4 min 0 min 373 W/m 25,7 km/h
O-SO (4 Bft)
100,00 %
Durchschnitt _ 3,2 C 3,0 C 1,5 C 74 % 1031,6 hPa #0,0 l/m #4:00 h #0 min. 133 W/m 10,1 km/h (2 Bft) 96,92 %
© 2019 W. Hausmann